Observation data for Romero 11SSW on 12/08/2018      Previous  Date       Current Mesonet Observations  Soil Data  Daily Summary Page  Observations in Plain Language
KBR1 080600Z 04002KT 01/M03 A3031 RMK A01 T00071032  RH  075%=      5-min Rain = 0
KBR1 080601Z 05002KT 01/M03 A3031 RMK A01 T00081031  RH  075%=      5-min Rain = 0
KBR1 080602Z 05002KT 01/M03 A3031 RMK A01 T00071032  RH  075%=      5-min Rain = 0
KBR1 080603Z 04002KT 01/M03 A3031 RMK A01 T00071032  RH  075%=      5-min Rain = 0
KBR1 080604Z 04002KT 01/M03 A3031 RMK A01 T00071032  RH  075%=      5-min Rain = 0
KBR1 080605Z 04002KT 01/M03 A3031 RMK A01 T00071032  RH  075%=      5-min Rain = 0
KBR1 080606Z 05003KT 01/M03 A3031 RMK A01 T00071032  RH  075%=      5-min Rain = 0
KBR1 080607Z 04003KT 01/M03 A303 RMK A01 T00071032  RH  075%=      5-min Rain = 0
KBR1 080608Z 05003KT 01/M03 A303 RMK A01 T00071032  RH  075%=      5-min Rain = 0
KBR1 080609Z 05003KT 01/M03 A303 RMK A01 T00071032  RH  075%=      5-min Rain = 0
KBR1 080610Z 05003KT 01/M03 A303 RMK A01 T00071032  RH  075%=      5-min Rain = 0
KBR1 080611Z 05003KT 01/M03 A303 RMK A01 T00071032  RH  075%=      5-min Rain = 0
KBR1 080612Z 05003KT 01/M03 A303 RMK A01 T00071032  RH  075%=      5-min Rain = 0
KBR1 080613Z 05003KT 01/M03 A303 RMK A01 T00071032  RH  075%=      5-min Rain = 0
KBR1 080614Z 05004KT 01/M03 A303 RMK A01 T00061032  RH  076%=      5-min Rain = 0
KBR1 080615Z 05004KT 01/M03 A303 RMK A01 T00071031  RH  076%=      5-min Rain = 0
KBR1 080616Z 05004KT 01/M03 A303 RMK A01 T00061032  RH  076%=      5-min Rain = 0
KBR1 080617Z 04004KT 01/M03 A303 RMK A01 T00071032  RH  076%=      5-min Rain = 0
KBR1 080618Z 04004KT 01/M03 A303 RMK A01 T00061032  RH  076%=      5-min Rain = 0
KBR1 080619Z 04004KT 01/M03 A303 RMK A01 T00061032  RH  076%=      5-min Rain = 0
KBR1 080620Z 04005KT 01/M03 A303 RMK A01 T00061032  RH  076%=      5-min Rain = 0
KBR1 080621Z 04006KT 01/M03 A303 RMK A01 T00061032  RH  076%=      5-min Rain = 0
KBR1 080622Z 05008KT 01/M03 A303 RMK A01 T00061032  RH  076%=      5-min Rain = 0
KBR1 080623Z 05008KT 01/M03 A303 RMK A01 T00061034  RH  075%=      5-min Rain = 0
KBR1 080624Z 04007KT 01/M04 A303 RMK A01 T00051035  RH  075%=      5-min Rain = 0
KBR1 080625Z 04007KT 00/M04 A303 RMK A01 T00041035  RH  075%=      5-min Rain = 0
KBR1 080626Z 04008KT 00/M04 A303 RMK A01 T00041036  RH  075%=      5-min Rain = 0
KBR1 080627Z 04007KT 00/M04 A303 RMK A01 T00031037  RH  074%=      5-min Rain = 0
KBR1 080628Z 03006KT 00/M04 A303 RMK A01 T00031038  RH  074%=      5-min Rain = 0
KBR1 080629Z 03007KT 00/M04 A303 RMK A01 T00031038  RH  074%=      5-min Rain = 0
KBR1 080630Z 04006KT 00/M04 A303 RMK A01 T00021039  RH  074%=      5-min Rain = 0
KBR1 080631Z 04006KT 00/M04 A303 RMK A01 T00021039  RH  074%=      5-min Rain = 0
KBR1 080632Z 03008KT 00/M04 A303 RMK A01 T00021039  RH  074%=      5-min Rain = 0
KBR1 080633Z 03007KT 00/M04 A303 RMK A01 T00021040  RH  074%=      5-min Rain = 0
KBR1 080634Z 03007KT 00/M04 A303 RMK A01 T00021040  RH  073%=      5-min Rain = 0
KBR1 080635Z 03006KT 00/M04 A303 RMK A01 T00021040  RH  074%=      5-min Rain = 0
KBR1 080636Z 03006KT 00/M04 A303 RMK A01 T00011040  RH  074%=      5-min Rain = 0
KBR1 080637Z 04006KT 00/M04 A303 RMK A01 T00021040  RH  074%=      5-min Rain = 0
KBR1 080638Z 04005KT 00/M04 A303 RMK A01 T00011040  RH  074%=      5-min Rain = 0
KBR1 080639Z 04006KT 00/M04 A303 RMK A01 T00021040  RH  074%=      5-min Rain = 0
KBR1 080640Z 05007KT 00/M04 A3031 RMK A01 T00021040  RH  074%=      5-min Rain = 0
KBR1 080641Z 04006KT 00/M04 A3031 RMK A01 T00021040  RH  074%=      5-min Rain = 0
KBR1 080642Z 05007KT 00/M04 A3031 RMK A01 T00011040  RH  074%=      5-min Rain = 0
KBR1 080643Z 05006KT 00/M04 A3031 RMK A01 T00011040  RH  074%=      5-min Rain = 0
KBR1 080644Z 05006KT 00/M04 A3031 RMK A01 T00011040  RH  074%=      5-min Rain = 0
KBR1 080645Z 05007KT 00/M04 A3031 RMK A01 T00011040  RH  074%=      5-min Rain = 0
KBR1 080646Z 05007KT 00/M04 A3031 RMK A01 T00011040  RH  074%=      5-min Rain = 0
KBR1 080647Z 06009KT 00/M04 A3031 RMK A01 T00011040  RH  074%=      5-min Rain = 0
KBR1 080648Z 06008KT 00/M04 A303 RMK A01 T00011041  RH  074%=      5-min Rain = 0
KBR1 080649Z 07008KT 00/M04 A303 RMK A01 T00011041  RH  074%=      5-min Rain = 0
KBR1 080650Z 07007KT 00/04 A3031 RMK A01 T00-00-41  RH  074%=      5-min Rain = 0
KBR1 080651Z 07008KT 00/04 A303 RMK A01 T00-00-42  RH  073%=      5-min Rain = 0
KBR1 080652Z 07008KT 00/04 A303 RMK A01 T00-00-43  RH  073%=      5-min Rain = 0
KBR1 080653Z 07009KT M00/M04 A303 RMK A01 T10011044  RH  073%=      5-min Rain = 0
KBR1 080654Z 07008KT M00/M05 A303 RMK A01 T10021045  RH  073%=      5-min Rain = 0
KBR1 080655Z 07006KT M00/M04 A303 RMK A01 T10021044  RH  073%=      5-min Rain = 0
KBR1 080656Z 07007KT M00/M04 A303 RMK A01 T10011044  RH  073%=      5-min Rain = 0
KBR1 080657Z 07008KT M00/M04 A303 RMK A01 T10021044  RH  073%=      5-min Rain = 0
KBR1 080658Z 07008KT M00/M05 A303 RMK A01 T10021045  RH  073%=      5-min Rain = 0
KBR1 080659Z 07007KT M00/M05 A303 RMK A01 T10021045  RH  073%=      5-min Rain = 0
KBR1 080700Z 07006KT M00/M05 A303 RMK A01 T10021045  RH  073%=      5-min Rain = 0
KBR1 080701Z 07007KT M00/M05 A303 RMK A01 T10021045  RH  073%=      5-min Rain = 0
KBR1 080702Z 08007KT M00/M05 A303 RMK A01 T10021045  RH  073%=      5-min Rain = 0
KBR1 080703Z 08007KT M00/M05 A303 RMK A01 T10021045  RH  073%=      5-min Rain = 0
KBR1 080704Z 08006KT M00/M05 A303 RMK A01 T10031046  RH  073%=      5-min Rain = 0
KBR1 080705Z 07007KT M00/M05 A303 RMK A01 T10031046  RH  073%=      5-min Rain = 0
KBR1 080706Z 07007KT M00/M05 A303 RMK A01 T10031046  RH  072%=      5-min Rain = 0
KBR1 080707Z 08006KT M00/M05 A303 RMK A01 T10031047  RH  072%=      5-min Rain = 0
KBR1 080708Z 08007KT M00/M05 A303 RMK A01 T10021046  RH  072%=      5-min Rain = 0
KBR1 080709Z 07006KT M00/M05 A303 RMK A01 T10031047  RH  072%=      5-min Rain = 0
KBR1 080710Z 07006KT M00/M05 A303 RMK A01 T10031048  RH  072%=      5-min Rain = 0
KBR1 080711Z 07008KT M00/M05 A303 RMK A01 T10031048  RH  072%=      5-min Rain = 0
KBR1 080712Z 08008KT M00/M05 A303 RMK A01 T10031049  RH  071%=      5-min Rain = 0
KBR1 080713Z 07008KT M00/M05 A303 RMK A01 T10031049  RH  071%=      5-min Rain = 0
KBR1 080714Z 08008KT M00/M05 A303 RMK A01 T10031049  RH  071%=      5-min Rain = 0
KBR1 080715Z 08006KT M00/M05 A303 RMK A01 T10031049  RH  071%=      5-min Rain = 0
KBR1 080716Z 08007KT M00/M05 A303 RMK A01 T10031049  RH  071%=      5-min Rain = 0
KBR1 080717Z 08007KT M00/M05 A303 RMK A01 T10031049  RH  071%=      5-min Rain = 0
KBR1 080718Z 08007KT M00/M05 A303 RMK A01 T10031050  RH  071%=      5-min Rain = 0
KBR1 080719Z 08007KT M00/M05 A303 RMK A01 T10031050  RH  071%=      5-min Rain = 0
KBR1 080720Z 08006KT M00/M05 A303 RMK A01 T10031050  RH  071%=      5-min Rain = 0
KBR1 080721Z 08005KT M00/M05 A303 RMK A01 T10031049  RH  071%=      5-min Rain = 0
KBR1 080722Z 08005KT M00/M05 A303 RMK A01 T10031049  RH  071%=      5-min Rain = 0
KBR1 080723Z 07006KT M00/M05 A3029 RMK A01 T10031049  RH  071%=      5-min Rain = 0
KBR1 080724Z 07007KT M00/M05 A3029 RMK A01 T10031049  RH  071%=      5-min Rain = 0
KBR1 080725Z 07007KT M00/M05 A3029 RMK A01 T10031049  RH  071%=      5-min Rain = 0
KBR1 080726Z 07007KT M00/M05 A3029 RMK A01 T10031049  RH  071%=      5-min Rain = 0
KBR1 080727Z 07006KT M00/M05 A3029 RMK A01 T10031049  RH  071%=      5-min Rain = 0
KBR1 080728Z 07007KT M00/M05 A3029 RMK A01 T10031049  RH  071%=      5-min Rain = 0
KBR1 080729Z 08007KT M00/M05 A3029 RMK A01 T10031049  RH  071%=      5-min Rain = 0
KBR1 080730Z 07007KT M00/M05 A3029 RMK A01 T10031048  RH  071%=      5-min Rain = 0
KBR1 080731Z 07006KT M00/M05 A3029 RMK A01 T10031048  RH  072%=      5-min Rain = 0
KBR1 080732Z 08007KT M00/M05 A3029 RMK A01 T10031048  RH  072%=      5-min Rain = 0
KBR1 080733Z 07007KT M00/M05 A3029 RMK A01 T10031048  RH  071%=      5-min Rain = 0
KBR1 080734Z 08008KT M00/M05 A3029 RMK A01 T10031049  RH  071%=      5-min Rain = 0
KBR1 080735Z 08007KT M00/M05 A3029 RMK A01 T10041049  RH  071%=      5-min Rain = 0
KBR1 080736Z 08007KT M00/M05 A3029 RMK A01 T10041049  RH  071%=      5-min Rain = 0
KBR1 080737Z 08007KT M00/M05 A3029 RMK A01 T10041049  RH  071%=      5-min Rain = 0
KBR1 080738Z 08007KT M00/M05 A3029 RMK A01 T10041049  RH  071%=      5-min Rain = 0
KBR1 080739Z 07005KT M00/M05 A3029 RMK A01 T10041049  RH  071%=      5-min Rain = 0
KBR1 080740Z 07005KT M00/M05 A3029 RMK A01 T10041049  RH  072%=      5-min Rain = 0
KBR1 080741Z 07006KT M00/M05 A3029 RMK A01 T10041049  RH  072%=      5-min Rain = 0
KBR1 080742Z 07006KT M00/M05 A3029 RMK A01 T10041049  RH  072%=      5-min Rain = 0
KBR1 080743Z 07005KT M00/M05 A3029 RMK A01 T10031048  RH  072%=      5-min Rain = 0
KBR1 080744Z 08005KT M00/M05 A3029 RMK A01 T10041048  RH  072%=      5-min Rain = 0
KBR1 080745Z 07005KT M00/M05 A3029 RMK A01 T10041048  RH  072%=      5-min Rain = 0
KBR1 080746Z 07007KT M00/M05 A3029 RMK A01 T10041048  RH  072%=      5-min Rain = 0
KBR1 080747Z 08007KT M00/M05 A3029 RMK A01 T10041049  RH  072%=      5-min Rain = 0
KBR1 080748Z 07007KT M00/M05 A3029 RMK A01 T10041050  RH  071%=      5-min Rain = 0
KBR1 080749Z 07006KT M00/M05 A3029 RMK A01 T10041050  RH  071%=      5-min Rain = 0
KBR1 080750Z 07005KT M00/M05 A3029 RMK A01 T10041050  RH  071%=      5-min Rain = 0
KBR1 080751Z 07007KT M00/M05 A3029 RMK A01 T10041050  RH  071%=      5-min Rain = 0
KBR1 080752Z 08007KT M00/M05 A3029 RMK A01 T10041050  RH  071%=      5-min Rain = 0
KBR1 080753Z 08007KT M00/M05 A3029 RMK A01 T10041050  RH  071%=      5-min Rain = 0
KBR1 080754Z 08007KT M00/M05 A3029 RMK A01 T10041050  RH  071%=      5-min Rain = 0
KBR1 080755Z 07006KT M00/M05 A3029 RMK A01 T10041050  RH  071%=      5-min Rain = 0
KBR1 080756Z 07007KT M00/M05 A3028 RMK A01 T10041050  RH  071%=      5-min Rain = 0
KBR1 080757Z 07007KT M00/M05 A3028 RMK A01 T10041050  RH  071%=      5-min Rain = 0
KBR1 080758Z 06008KT M00/M05 A3028 RMK A01 T10041051  RH  071%=      5-min Rain = 0
KBR1 080759Z 06008KT M00/M05 A3028 RMK A01 T10041051  RH  071%=      5-min Rain = 0
KBR1 080800Z 07007KT M00/M05 A3028 RMK A01 T10041052  RH  070%=      5-min Rain = 0
KBR1 080801Z 07007KT M00/M05 A3028 RMK A01 T10041051  RH  071%=      5-min Rain = 0
KBR1 080802Z 07007KT M00/M05 A3028 RMK A01 T10041051  RH  071%=      5-min Rain = 0
KBR1 080803Z 07007KT M00/M05 A3028 RMK A01 T10041051  RH  071%=      5-min Rain = 0
KBR1 080804Z 07005KT M00/M05 A3028 RMK A01 T10041051  RH  071%=      5-min Rain = 0
KBR1 080805Z 07005KT M01/M05 A3028 RMK A01 T10051051  RH  071%=      5-min Rain = 0
KBR1 080806Z 07007KT M00/M05 A3028 RMK A01 T10041050  RH  071%=      5-min Rain = 0
KBR1 080807Z 07008KT M00/M05 A3028 RMK A01 T10041051  RH  071%=      5-min Rain = 0
KBR1 080808Z 07008KT M00/M05 A3028 RMK A01 T10041051  RH  071%=      5-min Rain = 0
KBR1 080809Z 07006KT M01/M05 A3028 RMK A01 T10051051  RH  071%=      5-min Rain = 0
KBR1 080810Z 06006KT M01/M05 A3029 RMK A01 T10051051  RH  071%=      5-min Rain = 0
KBR1 080811Z 07005KT M01/M05 A3029 RMK A01 T10051051  RH  071%=      5-min Rain = 0
KBR1 080812Z 06007KT M01/M05 A3029 RMK A01 T10051051  RH  071%=      5-min Rain = 0
KBR1 080813Z 06007KT M01/M05 A3029 RMK A01 T10051051  RH  071%=      5-min Rain = 0
KBR1 080814Z 06005KT M01/M05 A3029 RMK A01 T10051051  RH  071%=      5-min Rain = 0
KBR1 080815Z 06006KT M01/M05 A3029 RMK A01 T10051051  RH  071%=      5-min Rain = 0
KBR1 080816Z 07005KT M01/M05 A3029 RMK A01 T10051051  RH  071%=      5-min Rain = 0
KBR1 080817Z 07004KT M01/M05 A3029 RMK A01 T10051051  RH  071%=      5-min Rain = 0
KBR1 080818Z 07006KT M01/M05 A3029 RMK A01 T10051051  RH  071%=      5-min Rain = 0
KBR1 080819Z 08005KT M01/M05 A3029 RMK A01 T10051051  RH  071%=      5-min Rain = 0
KBR1 080820Z 07004KT M01/M05 A3029 RMK A01 T10051051  RH  071%=      5-min Rain = 0
KBR1 080821Z 08004KT M01/M05 A3029 RMK A01 T10051050  RH  071%=      5-min Rain = 0
KBR1 080822Z 07005KT M01/M05 A3029 RMK A01 T10051050  RH  071%=      5-min Rain = 0
KBR1 080823Z 07006KT M01/M05 A3029 RMK A01 T10051051  RH  071%=      5-min Rain = 0
KBR1 080824Z 07007KT M01/M05 A3029 RMK A01 T10051051  RH  071%=      5-min Rain = 0
KBR1 080825Z 07007KT M01/M05 A3029 RMK A01 T10051051  RH  071%=      5-min Rain = 0
KBR1 080826Z 07008KT M01/M05 A3029 RMK A01 T10051052  RH  071%=      5-min Rain = 0
KBR1 080827Z 07007KT M01/M05 A3029 RMK A01 T10051052  RH  071%=      5-min Rain = 0
KBR1 080828Z 07007KT M01/M05 A3029 RMK A01 T10051052  RH  071%=      5-min Rain = 0
KBR1 080829Z 07006KT M01/M05 A3029 RMK A01 T10051052  RH  071%=      5-min Rain = 0
KBR1 080830Z 07005KT M01/M05 A3029 RMK A01 T10051052  RH  071%=      5-min Rain = 0
KBR1 080831Z 07004KT M01/M05 A3029 RMK A01 T10051051  RH  071%=      5-min Rain = 0
KBR1 080832Z 07004KT M01/M05 A3029 RMK A01 T10051051  RH  071%=      5-min Rain = 0
KBR1 080833Z 07004KT M01/M05 A3029 RMK A01 T10051051  RH  071%=      5-min Rain = 0
KBR1 080834Z 07005KT M01/M05 A3029 RMK A01 T10051051  RH  071%=      5-min Rain = 0
KBR1 080835Z 07006KT M01/M05 A3029 RMK A01 T10051051  RH  071%=      5-min Rain = 0
KBR1 080836Z 07005KT M01/M05 A3029 RMK A01 T10051052  RH  071%=      5-min Rain = 0
KBR1 080837Z 07005KT M01/M05 A3029 RMK A01 T10051052  RH  071%=      5-min Rain = 0
KBR1 080838Z 07006KT M01/M05 A3029 RMK A01 T10051052  RH  071%=      5-min Rain = 0
KBR1 080839Z 07006KT M01/M05 A3029 RMK A01 T10051052  RH  071%=      5-min Rain = 0
KBR1 080840Z 07006KT M01/M05 A3029 RMK A01 T10051051  RH  071%=      5-min Rain = 0
KBR1 080841Z 07006KT M01/M05 A3029 RMK A01 T10051052  RH  071%=      5-min Rain = 0
KBR1 080842Z 07006KT M01/M05 A3029 RMK A01 T10051051  RH  071%=      5-min Rain = 0
KBR1 080843Z 07006KT M01/M05 A3029 RMK A01 T10051051  RH  071%=      5-min Rain = 0
KBR1 080844Z 07005KT M01/M05 A3029 RMK A01 T10061051  RH  071%=      5-min Rain = 0
KBR1 080845Z 07005KT M01/M05 A3029 RMK A01 T10061051  RH  071%=      5-min Rain = 0
KBR1 080846Z 07006KT M01/M05 A3029 RMK A01 T10061050  RH  072%=      5-min Rain = 0
KBR1 080847Z 07006KT M01/M05 A3029 RMK A01 T10061051  RH  072%=      5-min Rain = 0
KBR1 080848Z 07006KT M01/M05 A3029 RMK A01 T10061051  RH  072%=      5-min Rain = 0
KBR1 080849Z 07006KT M01/M05 A3029 RMK A01 T10061051  RH  072%=      5-min Rain = 0
KBR1 080850Z 07005KT M01/M05 A3029 RMK A01 T10061050  RH  072%=      5-min Rain = 0
KBR1 080851Z 07006KT M01/M05 A3029 RMK A01 T10061050  RH  072%=      5-min Rain = 0
KBR1 080852Z 07005KT M01/M05 A3029 RMK A01 T10061051  RH  072%=      5-min Rain = 0
KBR1 080853Z 07006KT M01/M05 A3029 RMK A01 T10061051  RH  072%=      5-min Rain = 0
KBR1 080854Z 07006KT M01/M05 A3029 RMK A01 T10061051  RH  072%=      5-min Rain = 0
KBR1 080855Z 06004KT M01/M05 A3029 RMK A01 T10061051  RH  072%=      5-min Rain = 0
KBR1 080856Z 06004KT M01/M05 A3029 RMK A01 T10061051  RH  072%=      5-min Rain = 0
KBR1 080857Z 07005KT M01/M05 A3029 RMK A01 T10061050  RH  072%=      5-min Rain = 0
KBR1 080858Z 07005KT M01/M05 A3029 RMK A01 T10061050  RH  072%=      5-min Rain = 0
KBR1 080859Z 07005KT M01/M05 A3029 RMK A01 T10061051  RH  072%=      5-min Rain = 0
KBR1 080900Z 07005KT M01/M05 A3029 RMK A01 T10061051  RH  072%=      5-min Rain = 0
KBR1 080901Z 08005KT M01/M05 A3029 RMK A01 T10061050  RH  072%=      5-min Rain = 0
KBR1 080902Z 08004KT M01/M05 A3029 RMK A01 T10061050  RH  072%=      5-min Rain = 0
KBR1 080903Z 08004KT M01/M05 A3029 RMK A01 T10061050  RH  072%=      5-min Rain = 0
KBR1 080904Z 08004KT M01/M05 A3029 RMK A01 T10071050  RH  072%=      5-min Rain = 0
KBR1 080905Z 08004KT M01/M05 A3029 RMK A01 T10061050  RH  072%=      5-min Rain = 0
KBR1 080906Z 07004KT M01/M05 A3029 RMK A01 T10071050  RH  072%=      5-min Rain = 0
KBR1 080907Z 07004KT M01/M05 A3029 RMK A01 T10071050  RH  072%=      5-min Rain = 0
KBR1 080908Z 07003KT M01/M05 A3029 RMK A01 T10071050  RH  073%=      5-min Rain = 0
KBR1 080909Z 07004KT M01/M05 A3029 RMK A01 T10071050  RH  073%=      5-min Rain = 0
KBR1 080910Z 07004KT M01/M05 A3029 RMK A01 T10071050  RH  072%=      5-min Rain = 0
KBR1 080911Z 07004KT M01/M05 A3029 RMK A01 T10071051  RH  072%=      5-min Rain = 0
KBR1 080912Z 07004KT M01/M05 A3029 RMK A01 T10071051  RH  072%=      5-min Rain = 0
KBR1 080913Z 08003KT M01/M05 A3029 RMK A01 T10071050  RH  072%=      5-min Rain = 0
KBR1 080914Z 06003KT M01/M05 A3029 RMK A01 T10071050  RH  073%=      5-min Rain = 0
KBR1 080915Z 06003KT M01/M05 A3029 RMK A01 T10071050  RH  073%=      5-min Rain = 0
KBR1 080916Z 06004KT M01/M05 A3029 RMK A01 T10071050  RH  073%=      5-min Rain = 0
KBR1 080917Z 06003KT M01/M05 A3029 RMK A01 T10071050  RH  073%=      5-min Rain = 0
KBR1 080918Z 06003KT M01/M05 A3028 RMK A01 T10071050  RH  073%=      5-min Rain = 0
KBR1 080919Z 06003KT M01/M05 A3028 RMK A01 T10071050  RH  073%=      5-min Rain = 0
KBR1 080920Z 06003KT M01/M05 A3028 RMK A01 T10071050  RH  073%=      5-min Rain = 0
KBR1 080921Z 06004KT M01/M05 A3028 RMK A01 T10071050  RH  073%=      5-min Rain = 0
KBR1 080922Z 06004KT M01/M05 A3028 RMK A01 T10081050  RH  073%=      5-min Rain = 0
KBR1 080923Z 06003KT M01/M05 A3028 RMK A01 T10081050  RH  073%=      5-min Rain = 0
KBR1 080924Z 06003KT M01/M05 A3028 RMK A01 T10071050  RH  073%=      5-min Rain = 0
KBR1 080925Z 05002KT M01/M05 A3028 RMK A01 T10081050  RH  073%=      5-min Rain = 0
KBR1 080926Z 06003KT M01/M05 A3029 RMK A01 T10081049  RH  073%=      5-min Rain = 0
KBR1 080927Z 04003KT M01/M05 A3029 RMK A01 T10081049  RH  073%=      5-min Rain = 0
KBR1 080928Z 06003KT M01/M05 A3029 RMK A01 T10081050  RH  073%=      5-min Rain = 0
KBR1 080929Z 06003KT M01/M05 A3028 RMK A01 T10081050  RH  073%=      5-min Rain = 0
KBR1 080930Z 05002KT M01/M05 A3028 RMK A01 T10081050  RH  073%=      5-min Rain = 0
KBR1 080931Z 05002KT M01/M05 A3028 RMK A01 T10081050  RH  073%=      5-min Rain = 0
KBR1 080932Z 05002KT M01/M05 A3028 RMK A01 T10091050  RH  074%=      5-min Rain = 0
KBR1 080933Z 05003KT M01/M05 A3028 RMK A01 T10081049  RH  074%=      5-min Rain = 0
KBR1 080934Z 04003KT M01/M05 A3028 RMK A01 T10081049  RH  074%=      5-min Rain = 0
KBR1 080935Z 05003KT M01/M05 A3028 RMK A01 T10091050  RH  074%=      5-min Rain = 0
KBR1 080936Z 05002KT M01/M05 A3028 RMK A01 T10091049  RH  074%=      5-min Rain = 0
KBR1 080937Z 04003KT M01/M05 A3028 RMK A01 T10101049  RH  074%=      5-min Rain = 0
KBR1 080938Z 04003KT M01/M05 A3028 RMK A01 T10101049  RH  075%=      5-min Rain = 0
KBR1 080939Z 05003KT M01/M05 A3028 RMK A01 T10101049  RH  075%=      5-min Rain = 0
KBR1 080940Z 05003KT M01/M05 A3028 RMK A01 T10101049  RH  075%=      5-min Rain = 0
KBR1 080941Z 05003KT M01/M05 A3028 RMK A01 T10101049  RH  075%=      5-min Rain = 0
KBR1 080942Z 05004KT M01/M05 A3028 RMK A01 T10111049  RH  075%=      5-min Rain = 0
KBR1 080943Z 05003KT M01/M05 A3028 RMK A01 T10111048  RH  076%=      5-min Rain = 0
KBR1 080944Z 06003KT M01/M05 A3028 RMK A01 T10111048  RH  076%=      5-min Rain = 0
KBR1 080945Z 06003KT M01/M05 A3028 RMK A01 T10111048  RH  076%=      5-min Rain = 0
KBR1 080946Z 06004KT M01/M05 A3028 RMK A01 T10111048  RH  076%=      5-min Rain = 0
KBR1 080947Z 07004KT M01/M05 A3028 RMK A01 T10111048  RH  076%=      5-min Rain = 0
KBR1 080948Z 06005KT M01/M05 A3028 RMK A01 T10111048  RH  076%=      5-min Rain = 0
KBR1 080949Z 07005KT M01/M05 A3028 RMK A01 T10111049  RH  075%=      5-min Rain = 0
KBR1 080950Z 07004KT M01/M05 A3028 RMK A01 T10101049  RH  075%=      5-min Rain = 0
KBR1 080951Z 07004KT M01/M05 A3028 RMK A01 T10101050  RH  075%=      5-min Rain = 0
KBR1 080952Z 07005KT M01/M05 A3028 RMK A01 T10101050  RH  075%=      5-min Rain = 0
KBR1 080953Z 07005KT M01/M05 A3028 RMK A01 T10111050  RH  074%=      5-min Rain = 0
KBR1 080954Z 07005KT M01/M05 A3028 RMK A01 T10101050  RH  074%=      5-min Rain = 0
KBR1 080955Z 07005KT M01/M05 A3028 RMK A01 T10101051  RH  074%=      5-min Rain = 0
KBR1 080956Z 07006KT M01/M05 A3028 RMK A01 T10101050  RH  074%=      5-min Rain = 0
KBR1 080957Z 06005KT M01/M05 A3028 RMK A01 T10101051  RH  074%=      5-min Rain = 0
KBR1 080958Z 07004KT M01/M05 A3028 RMK A01 T10101050  RH  074%=      5-min Rain = 0
KBR1 080959Z 06004KT M01/M05 A3028 RMK A01 T10101050  RH  074%=      5-min Rain = 0
KBR1 081000Z 07004KT M01/M05 A3028 RMK A01 T10101050  RH  074%=      5-min Rain = 0
KBR1 081001Z 07004KT M01/M05 A3028 RMK A01 T10101050  RH  074%=      5-min Rain = 0
KBR1 081002Z 07004KT M01/M05 A3028 RMK A01 T10101050  RH  074%=      5-min Rain = 0
KBR1 081003Z 07004KT M01/M05 A3028 RMK A01 T10101050  RH  074%=      5-min Rain = 0
KBR1 081004Z 07005KT M01/M05 A3028 RMK A01 T10101050  RH  074%=      5-min Rain = 0
KBR1 081005Z 07005KT M01/M05 A3028 RMK A01 T10101051  RH  074%=      5-min Rain = 0
KBR1 081006Z 06005KT M01/M05 A3028 RMK A01 T10101051  RH  073%=      5-min Rain = 0
KBR1 081007Z 07004KT M01/M05 A3028 RMK A01 T10101051  RH  073%=      5-min Rain = 0
KBR1 081008Z 07005KT M01/M05 A3028 RMK A01 T10101051  RH  073%=      5-min Rain = 0
KBR1 081009Z 07004KT M01/M05 A3028 RMK A01 T10101051  RH  073%=      5-min Rain = 0
KBR1 081010Z 07005KT M01/M05 A3028 RMK A01 T10101051  RH  074%=      5-min Rain = 0
KBR1 081011Z 07005KT M01/M05 A3028 RMK A01 T10101051  RH  074%=      5-min Rain = 0
KBR1 081012Z 06004KT M01/M05 A3027 RMK A01 T10101052  RH  073%=      5-min Rain = 0
KBR1 081013Z 07005KT M01/M05 A3027 RMK A01 T10101052  RH  073%=      5-min Rain = 0
KBR1 081014Z 06005KT M01/M05 A3027 RMK A01 T10101052  RH  073%=      5-min Rain = 0
KBR1 081015Z 06004KT M01/M05 A3027 RMK A01 T10101052  RH  073%=      5-min Rain = 0
KBR1 081016Z 07004KT M01/M05 A3027 RMK A01 T10101051  RH  074%=      5-min Rain = 0
KBR1 081017Z 06005KT M01/M05 A3027 RMK A01 T10101051  RH  074%=      5-min Rain = 0
KBR1 081018Z 07004KT M01/M05 A3027 RMK A01 T10101051  RH  073%=      5-min Rain = 0
KBR1 081019Z 07004KT M01/M05 A3027 RMK A01 T10101051  RH  073%=      5-min Rain = 0
KBR1 081020Z 07004KT M01/M05 A3027 RMK A01 T10101051  RH  074%=      5-min Rain = 0
KBR1 081021Z 08003KT M01/M05 A3027 RMK A01 T10101051  RH  074%=      5-min Rain = 0
KBR1 081022Z 08003KT M01/M05 A3027 RMK A01 T10101051  RH  074%=      5-min Rain = 0
KBR1 081023Z 08004KT M01/M05 A3027 RMK A01 T10101051  RH  074%=      5-min Rain = 0
KBR1 081024Z 08004KT M01/M05 A3027 RMK A01 T10101051  RH  074%=      5-min Rain = 0
KBR1 081025Z 08004KT M01/M05 A3027 RMK A01 T10101051  RH  074%=      5-min Rain = 0
KBR1 081026Z 08004KT M01/M05 A3027 RMK A01 T10101051  RH  074%=      5-min Rain = 0
KBR1 081027Z 08004KT M01/M05 A3027 RMK A01 T10101051  RH  073%=      5-min Rain = 0
KBR1 081028Z 08004KT M01/M05 A3027 RMK A01 T10101052  RH  073%=      5-min Rain = 0
KBR1 081029Z 08004KT M01/M05 A3027 RMK A01 T10101052  RH  073%=      5-min Rain = 0
KBR1 081030Z 08004KT M01/M05 A3027 RMK A01 T10101052  RH  073%=      5-min Rain = 0
KBR1 081031Z 08004KT M01/M05 A3027 RMK A01 T10101052  RH  073%=      5-min Rain = 0
KBR1 081032Z 07004KT M01/M05 A3027 RMK A01 T10101052  RH  073%=      5-min Rain = 0
KBR1 081033Z 07003KT M01/M05 A3027 RMK A01 T10101052  RH  073%=      5-min Rain = 0
KBR1 081034Z 07003KT M01/M05 A3027 RMK A01 T10101052  RH  073%=      5-min Rain = 0
KBR1 081035Z 07004KT M01/M05 A3027 RMK A01 T10101052  RH  073%=      5-min Rain = 0
KBR1 081036Z 07004KT M01/M05 A3027 RMK A01 T10101052  RH  073%=      5-min Rain = 0
KBR1 081037Z 07004KT M01/M05 A3027 RMK A01 T10101053  RH  073%=      5-min Rain = 0
KBR1 081038Z 07003KT M01/M05 A3027 RMK A01 T10101053  RH  073%=      5-min Rain = 0
KBR1 081039Z 06003KT M01/M05 A3027 RMK A01 T10101053  RH  073%=      5-min Rain = 0
KBR1 081040Z 06002KT M01/M05 A3027 RMK A01 T10101052  RH  073%=      5-min Rain = 0
KBR1 081041Z 06002KT M01/M05 A3027 RMK A01 T10101052  RH  073%=      5-min Rain = 0
KBR1 081042Z 06004KT M01/M05 A3027 RMK A01 T10101052  RH  073%=      5-min Rain = 0
KBR1 081043Z 06004KT M01/M05 A3027 RMK A01 T10101052  RH  073%=      5-min Rain = 0
KBR1 081044Z 06003KT M01/M05 A3027 RMK A01 T10101053  RH  073%=      5-min Rain = 0
KBR1 081045Z 05003KT M01/M05 A3027 RMK A01 T10101053  RH  073%=      5-min Rain = 0
KBR1 081046Z 04003KT M01/M05 A3027 RMK A01 T10101053  RH  073%=      5-min Rain = 0
KBR1 081047Z 04003KT M01/M05 A3027 RMK A01 T10101052  RH  073%=      5-min Rain = 0
KBR1 081048Z 04003KT M01/M05 A3027 RMK A01 T10101052  RH  073%=      5-min Rain = 0
KBR1 081049Z 04002KT M01/M05 A3027 RMK A01 T10101051  RH  073%=      5-min Rain = 0
KBR1 081050Z 04003KT M01/M05 A3027 RMK A01 T10101051  RH  073%=      5-min Rain = 0
KBR1 081051Z 05003KT M01/M05 A3027 RMK A01 T10101052  RH  073%=      5-min Rain = 0
KBR1 081052Z 05003KT M01/M05 A3027 RMK A01 T10101052  RH  073%=      5-min Rain = 0
KBR1 081053Z 05003KT M01/M05 A3027 RMK A01 T10101051  RH  074%=      5-min Rain = 0
KBR1 081054Z 04003KT M01/M05 A3027 RMK A01 T10101051  RH  073%=      5-min Rain = 0
KBR1 081055Z 05003KT M01/M05 A3027 RMK A01 T10101052  RH  073%=      5-min Rain = 0
KBR1 081056Z 05003KT M01/M05 A3027 RMK A01 T10101052  RH  073%=      5-min Rain = 0
KBR1 081057Z 05004KT M01/M05 A3027 RMK A01 T10101052  RH  073%=      5-min Rain = 0
KBR1 081058Z 05004KT M01/M05 A3027 RMK A01 T10101052  RH  073%=      5-min Rain = 0
KBR1 081059Z 05003KT M01/M05 A3027 RMK A01 T10101052  RH  073%=      5-min Rain = 0
KBR1 081100Z 05003KT M01/M05 A3026 RMK A01 T10101052  RH  073%=      5-min Rain = 0
KBR1 081101Z 05003KT M01/M05 A3026 RMK A01 T10101052  RH  073%=      5-min Rain = 0
KBR1 081102Z 05003KT M01/M05 A3026 RMK A01 T10101052  RH  073%=      5-min Rain = 0
KBR1 081103Z 05003KT M01/M05 A3026 RMK A01 T10101052  RH  074%=      5-min Rain = 0
KBR1 081104Z 05003KT M01/M05 A3026 RMK A01 T10101052  RH  073%=      5-min Rain = 0
KBR1 081105Z 04003KT M01/M05 A3026 RMK A01 T10101052  RH  074%=      5-min Rain = 0
KBR1 081106Z 04004KT M01/M05 A3026 RMK A01 T10101051  RH  074%=      5-min Rain = 0
KBR1 081107Z 04004KT M01/M05 A3026 RMK A01 T10111052  RH  074%=      5-min Rain = 0
KBR1 081108Z 03003KT M01/M05 A3026 RMK A01 T10111052  RH  074%=      5-min Rain = 0
KBR1 081109Z 03003KT M01/M05 A3026 RMK A01 T10111052  RH  074%=      5-min Rain = 0
KBR1 081110Z 03003KT M01/M05 A3026 RMK A01 T10111052  RH  074%=      5-min Rain = 0
KBR1 081111Z 03003KT M01/M05 A3026 RMK A01 T10111052  RH  074%=      5-min Rain = 0
KBR1 081112Z 03003KT M01/M05 A3026 RMK A01 T10111052  RH  074%=      5-min Rain = 0
KBR1 081113Z 03003KT M01/M05 A3026 RMK A01 T10111051  RH  074%=      5-min Rain = 0
KBR1 081114Z 03003KT M01/M05 A3026 RMK A01 T10121051  RH  074%=      5-min Rain = 0
KBR1 081115Z 03003KT M01/M05 A3026 RMK A01 T10121052  RH  074%=      5-min Rain = 0
KBR1 081116Z 03003KT M01/M05 A3026 RMK A01 T10121052  RH  074%=      5-min Rain = 0
KBR1 081117Z 03003KT M01/M05 A3026 RMK A01 T10121051  RH  074%=      5-min Rain = 0
KBR1 081118Z 03003KT M01/M05 A3026 RMK A01 T10121051  RH  075%=      5-min Rain = 0
KBR1 081119Z 03003KT M01/M05 A3026 RMK A01 T10121051  RH  075%=      5-min Rain = 0
KBR1 081120Z 03002KT M01/M05 A3026 RMK A01 T10131051  RH  075%=      5-min Rain = 0
KBR1 081121Z 03002KT M01/M05 A3026 RMK A01 T10131051  RH  075%=      5-min Rain = 0
KBR1 081122Z 03002KT M01/M05 A3026 RMK A01 T10131051  RH  075%=      5-min Rain = 0
KBR1 081123Z 03002KT M01/M05 A3027 RMK A01 T10131051  RH  075%=      5-min Rain = 0
KBR1 081124Z 03002KT M01/M05 A3027 RMK A01 T10141051  RH  075%=      5-min Rain = 0
KBR1 081125Z 03002KT M01/M05 A3027 RMK A01 T10141051  RH  076%=      5-min Rain = 0
KBR1 081126Z 02002KT M01/M05 A3027 RMK A01 T10141051  RH  076%=      5-min Rain = 0
KBR1 081127Z 02002KT M01/M05 A3027 RMK A01 T10141051  RH  076%=      5-min Rain = 0
KBR1 081128Z 02002KT M01/M05 A3027 RMK A01 T10141051  RH  076%=      5-min Rain = 0
KBR1 081129Z 02002KT M02/M05 A3027 RMK A01 T10151052  RH  076%=      5-min Rain = 0
KBR1 081130Z 02002KT M02/M05 A3027 RMK A01 T10151052  RH  076%=      5-min Rain = 0
KBR1 081131Z 02003KT M02/M05 A3027 RMK A01 T10151052  RH  076%=      5-min Rain = 0
KBR1 081132Z 02003KT M02/M05 A3027 RMK A01 T10161052  RH  076%=      5-min Rain = 0
KBR1 081133Z 02003KT M02/M05 A3027 RMK A01 T10171052  RH  077%=      5-min Rain = 0
KBR1 081134Z 02003KT M02/M05 A3027 RMK A01 T10171052  RH  077%=      5-min Rain = 0
KBR1 081135Z 03003KT M02/M05 A3027 RMK A01 T10181053  RH  077%=      5-min Rain = 0
KBR1 081136Z 03003KT M02/M05 A3027 RMK A01 T10191053  RH  077%=      5-min Rain = 0
KBR1 081137Z 03003KT M02/M05 A3027 RMK A01 T10191053  RH  078%=      5-min Rain = 0
KBR1 081138Z 03003KT M02/M05 A3027 RMK A01 T10201053  RH  078%=      5-min Rain = 0
KBR1 081139Z 03003KT M02/M05 A3027 RMK A01 T10211053  RH  078%=      5-min Rain = 0
KBR1 081140Z 03003KT M02/M05 A3027 RMK A01 T10211053  RH  079%=      5-min Rain = 0
KBR1 081141Z 03003KT M02/M05 A3027 RMK A01 T10221053  RH  079%=      5-min Rain = 0
KBR1 081142Z 03003KT M02/M05 A3027 RMK A01 T10221053  RH  079%=      5-min Rain = 0
KBR1 081143Z 03003KT M02/M05 A3027 RMK A01 T10221053  RH  079%=      5-min Rain = 0
KBR1 081144Z 01004KT M02/M05 A3027 RMK A01 T10231054  RH  079%=      5-min Rain = 0
KBR1 081145Z 00005KT M02/M06 A3027 RMK A01 T10241055  RH  079%=      5-min Rain = 0
KBR1 081146Z 36005KT M03/M06 A3027 RMK A01 T10271058  RH  079%=      5-min Rain = 0
KBR1 081147Z 36005KT M03/M06 A3027 RMK A01 T10291058  RH  080%=      5-min Rain = 0
KBR1 081148Z 00005KT M03/M06 A3027 RMK A01 T10301058  RH  081%=      5-min Rain = 0
KBR1 081149Z 00005KT M03/M06 A3027 RMK A01 T10321059  RH  082%=      5-min Rain = 0
KBR1 081150Z 00005KT M03/M06 A3027 RMK A01 T10331059  RH  082%=      5-min Rain = 0
KBR1 081151Z 00005KT M03/M06 A3027 RMK A01 T10341059  RH  083%=      5-min Rain = 0
KBR1 081152Z 00005KT M04/M06 A3027 RMK A01 T10351060  RH  083%=      5-min Rain = 0
KBR1 081153Z 00005KT M04/M06 A3027 RMK A01 T10351060  RH  083%=      5-min Rain = 0
KBR1 081154Z 36005KT M04/M06 A3027 RMK A01 T10361060  RH  083%=      5-min Rain = 0
KBR1 081155Z 00005KT M04/M06 A3027 RMK A01 T10361060  RH  084%=      5-min Rain = 0
KBR1 081156Z 36005KT M04/M06 A3028 RMK A01 T10361060  RH  084%=      5-min Rain = 0
KBR1 081157Z 36005KT M04/M06 A3028 RMK A01 T10371060  RH  084%=      5-min Rain = 0
KBR1 081158Z 35005KT M04/M06 A3028 RMK A01 T10371060  RH  084%=      5-min Rain = 0
KBR1 081159Z 35006KT M04/M06 A3028 RMK A01 T10381060  RH  084%=      5-min Rain = 0
KBR1 081200Z 35006KT M04/M06 A3028 RMK A01 T10381061  RH  084%=      5-min Rain = 0
KBR1 081201Z 35006KT M04/M06 A3028 RMK A01 T10381061  RH  084%=      5-min Rain = 0
KBR1 081202Z 35006KT M04/M06 A3028 RMK A01 T10391061  RH  084%=      5-min Rain = 0
KBR1 081203Z 35006KT M04/M06 A3028 RMK A01 T10391061  RH  085%=      5-min Rain = 0
KBR1 081204Z 35006KT M04/M06 A3028 RMK A01 T10391061  RH  085%=      5-min Rain = 0
KBR1 081205Z 36006KT M04/M06 A3028 RMK A01 T10401061  RH  085%=      5-min Rain = 0
KBR1 081206Z 36005KT M04/M06 A3028 RMK A01 T10401061  RH  085%=      5-min Rain = 0
KBR1 081207Z 36005KT M04/M06 A3028 RMK A01 T10401061  RH  085%=      5-min Rain = 0
KBR1 081208Z 36005KT M04/M06 A3028 RMK A01 T10391060  RH  086%=      5-min Rain = 0
KBR1 081209Z 36005KT M04/M06 A3028 RMK A01 T10391060  RH  086%=      5-min Rain = 0
KBR1 081210Z 36005KT M04/M06 A3028 RMK A01 T10391060  RH  086%=      5-min Rain = 0
KBR1 081211Z 00005KT M04/M06 A3028 RMK A01 T10391060  RH  085%=      5-min Rain = 0
KBR1 081212Z 00005KT M04/M06 A3028 RMK A01 T10391060  RH  085%=      5-min Rain = 0
KBR1 081213Z 36006KT M04/M06 A3028 RMK A01 T10381059  RH  085%=      5-min Rain = 0
KBR1 081214Z 01006KT M04/M06 A3028 RMK A01 T10381059  RH  085%=      5-min Rain = 0
KBR1 081215Z 00005KT M04/M06 A3028 RMK A01 T10381059  RH  085%=      5-min Rain = 0
KBR1 081216Z 00005KT M04/M06 A3028 RMK A01 T10381059  RH  085%=      5-min Rain = 0
KBR1 081217Z 00005KT M04/M06 A3028 RMK A01 T10371059  RH  085%=      5-min Rain = 0
KBR1 081218Z 36006KT M04/M06 A3028 RMK A01 T10361058  RH  085%=      5-min Rain = 0
KBR1 081219Z 36005KT M04/M06 A3028 RMK A01 T10361057  RH  085%=      5-min Rain = 0
KBR1 081220Z 36005KT M04/M06 A3028 RMK A01 T10351057  RH  085%=      5-min Rain = 0
KBR1 081221Z 00005KT M03/M06 A3028 RMK A01 T10341056  RH  085%=      5-min Rain = 0
KBR1 081222Z 00005KT M03/M06 A3028 RMK A01 T10331056  RH  084%=      5-min Rain = 0
KBR1 081223Z 01005KT M03/M06 A3028 RMK A01 T10331056  RH  084%=      5-min Rain = 0
KBR1 081224Z 01005KT M03/M06 A3028 RMK A01 T10321055  RH  084%=      5-min Rain = 0
KBR1 081225Z 01004KT M03/M06 A3028 RMK A01 T10321055  RH  084%=      5-min Rain = 0
KBR1 081226Z 01005KT M03/M06 A3028 RMK A01 T10311055  RH  084%=      5-min Rain = 0
KBR1 081227Z 01005KT M03/M06 A3028 RMK A01 T10311055  RH  084%=      5-min Rain = 0
KBR1 081228Z 01004KT M03/M06 A3028 RMK A01 T10311055  RH  084%=      5-min Rain = 0
KBR1 081229Z 01004KT M03/M05 A3028 RMK A01 T10301054  RH  084%=      5-min Rain = 0
KBR1 081230Z 01004KT M03/M06 A3028 RMK A01 T10301055  RH  083%=      5-min Rain = 0
KBR1 081231Z 01004KT M03/M05 A3028 RMK A01 T10301054  RH  083%=      5-min Rain = 0
KBR1 081232Z 01004KT M03/M05 A3028 RMK A01 T10301054  RH  083%=      5-min Rain = 0
KBR1 081233Z 01004KT M03/M05 A3028 RMK A01 T10291053  RH  083%=      5-min Rain = 0
KBR1 081234Z 01004KT M03/M05 A3028 RMK A01 T10281053  RH  083%=      5-min Rain = 0
KBR1 081235Z 01004KT M03/M05 A3028 RMK A01 T10281053  RH  083%=      5-min Rain = 0
KBR1 081236Z 01004KT M03/M05 A3028 RMK A01 T10281053  RH  083%=      5-min Rain = 0
KBR1 081237Z 01004KT M03/M05 A3028 RMK A01 T10281053  RH  083%=      5-min Rain = 0
KBR1 081238Z 01004KT M03/M05 A3028 RMK A01 T10271053  RH  083%=      5-min Rain = 0
KBR1 081239Z 01004KT M03/M05 A3028 RMK A01 T10271053  RH  083%=      5-min Rain = 0
KBR1 081240Z 01004KT M03/M05 A3028 RMK A01 T10271053  RH  082%=      5-min Rain = 0
KBR1 081241Z 01004KT M03/M05 A3028 RMK A01 T10271053  RH  082%=      5-min Rain = 0
KBR1 081242Z 01005KT M03/M05 A3028 RMK A01 T10271053  RH  082%=      5-min Rain = 0
KBR1 081243Z 01005KT M03/M05 A3028 RMK A01 T10271053  RH  082%=      5-min Rain = 0
KBR1 081244Z 01005KT M03/M05 A3028 RMK A01 T10261053  RH  082%=      5-min Rain = 0
KBR1 081245Z 00004KT M03/M05 A3028 RMK A01 T10261053  RH  082%=      5-min Rain = 0
KBR1 081246Z 00004KT M03/M05 A3028 RMK A01 T10261053  RH  082%=      5-min Rain = 0
KBR1 081247Z 01004KT M03/M05 A3028 RMK A01 T10261052  RH  082%=      5-min Rain = 0
KBR1 081248Z 00004KT M03/M05 A3028 RMK A01 T10261052  RH  082%=      5-min Rain = 0
KBR1 081249Z 00004KT M03/M05 A3028 RMK A01 T10261052  RH  082%=      5-min Rain = 0
KBR1 081250Z 01005KT M03/M05 A3028 RMK A01 T10261053  RH  082%=      5-min Rain = 0
KBR1 081251Z 01005KT M03/M05 A3028 RMK A01 T10261053  RH  082%=      5-min Rain = 0
KBR1 081252Z 01005KT M03/M05 A3028 RMK A01 T10261053  RH  082%=      5-min Rain = 0
KBR1 081253Z 01005KT M03/M05 A3028 RMK A01 T10261053  RH  082%=      5-min Rain = 0
KBR1 081254Z 01005KT M03/M05 A3028 RMK A01 T10261053  RH  081%=      5-min Rain = 0
KBR1 081255Z 01005KT M03/M05 A3027 RMK A01 T10261053  RH  081%=      5-min Rain = 0
KBR1 081256Z 01005KT M03/M05 A3027 RMK A01 T10261053  RH  081%=      5-min Rain = 0
KBR1 081257Z 01005KT M03/M05 A3027 RMK A01 T10261053  RH  081%=      5-min Rain = 0
KBR1 081258Z 01005KT M03/M05 A3027 RMK A01 T10261053  RH  082%=      5-min Rain = 0
KBR1 081259Z 01004KT M03/M05 A3027 RMK A01 T10261053  RH  082%=      5-min Rain = 0
KBR1 081300Z 00004KT M03/M05 A3027 RMK A01 T10261053  RH  082%=      5-min Rain = 0
KBR1 081301Z 01005KT M03/M05 A3027 RMK A01 T10271053  RH  082%=      5-min Rain = 0
KBR1 081302Z 00005KT M03/M05 A3027 RMK A01 T10271053  RH  082%=      5-min Rain = 0
KBR1 081303Z 00005KT M03/M05 A3027 RMK A01 T10271054  RH  082%=      5-min Rain = 0
KBR1 081304Z 00005KT M03/M05 A3027 RMK A01 T10271053  RH  082%=      5-min Rain = 0
KBR1 081305Z 00005KT M03/M05 A3027 RMK A01 T10281054  RH  082%=      5-min Rain = 0
KBR1 081306Z 00005KT M03/M05 A3027 RMK A01 T10281054  RH  082%=      5-min Rain = 0
KBR1 081307Z 01005KT M03/M05 A3027 RMK A01 T10281054  RH  083%=      5-min Rain = 0
KBR1 081308Z 01004KT M03/M05 A3027 RMK A01 T10291054  RH  083%=      5-min Rain = 0
KBR1 081309Z 01004KT M03/M05 A3027 RMK A01 T10291054  RH  083%=      5-min Rain = 0
KBR1 081310Z 01004KT M03/M06 A3028 RMK A01 T10291055  RH  083%=      5-min Rain = 0
KBR1 081311Z 01004KT M03/M06 A3028 RMK A01 T10301055  RH  083%=      5-min Rain = 0
KBR1 081312Z 00004KT M03/M06 A3028 RMK A01 T10301055  RH  083%=      5-min Rain = 0
KBR1 081313Z 01004KT M03/M06 A3028 RMK A01 T10301055  RH  083%=      5-min Rain = 0
KBR1 081314Z 01004KT M03/M06 A3028 RMK A01 T10311055  RH  083%=      5-min Rain = 0
KBR1 081315Z 01004KT M03/M06 A3028 RMK A01 T10311055  RH  083%=      5-min Rain = 0
KBR1 081316Z 01004KT M03/M06 A3028 RMK A01 T10311055  RH  083%=      5-min Rain = 0
KBR1 081317Z 01004KT M03/M06 A3028 RMK A01 T10321056  RH  084%=      5-min Rain = 0
KBR1 081318Z 02004KT M03/M06 A3028 RMK A01 T10321056  RH  084%=      5-min Rain = 0
KBR1 081319Z 02004KT M03/M06 A3028 RMK A01 T10331056  RH  084%=      5-min Rain = 0
KBR1 081320Z 02004KT M03/M06 A3028 RMK A01 T10331056  RH  084%=      5-min Rain = 0
KBR1 081321Z 02004KT M03/M06 A3028 RMK A01 T10331056  RH  084%=      5-min Rain = 0
KBR1 081322Z 01004KT M03/M06 A3028 RMK A01 T10341056  RH  084%=      5-min Rain = 0
KBR1 081323Z 01004KT M03/M06 A3028 RMK A01 T10341057  RH  085%=      5-min Rain = 0
KBR1 081324Z 01004KT M04/M06 A3028 RMK A01 T10351057  RH  085%=      5-min Rain = 0
KBR1 081325Z 01004KT M04/M06 A3028 RMK A01 T10351056  RH  085%=      5-min Rain = 0
KBR1 081326Z 01004KT M04/M06 A3028 RMK A01 T10351057  RH  085%=      5-min Rain = 0
KBR1 081327Z 01004KT M04/M06 A3028 RMK A01 T10351057  RH  085%=      5-min Rain = 0
KBR1 081328Z 00004KT M04/M06 A3028 RMK A01 T10351057  RH  085%=      5-min Rain = 0
KBR1 081329Z 00004KT M04/M06 A3028 RMK A01 T10351057  RH  085%=      5-min Rain = 0
KBR1 081330Z 00004KT M04/M06 A3028 RMK A01 T10361057  RH  085%=      5-min Rain = 0
KBR1 081331Z 01004KT M04/M06 A3028 RMK A01 T10361057  RH  086%=      5-min Rain = 0
KBR1 081332Z 01004KT M04/M06 A3028 RMK A01 T10361057  RH  086%=      5-min Rain = 0
KBR1 081333Z 01004KT M04/M06 A3028 RMK A01 T10361057  RH  086%=      5-min Rain = 0
KBR1 081334Z 01004KT M04/M06 A3028 RMK A01 T10371057  RH  086%=      5-min Rain = 0
KBR1 081335Z 02004KT M04/M06 A3028 RMK A01 T10371057  RH  086%=      5-min Rain = 0
KBR1 081336Z 02003KT M04/M06 A3028 RMK A01 T10371057  RH  086%=      5-min Rain = 0
KBR1 081337Z 02003KT M04/M06 A3028 RMK A01 T10381057  RH  086%=      5-min Rain = 0
KBR1 081338Z 02003KT M04/M06 A3028 RMK A01 T10381057  RH  086%=      5-min Rain = 0
KBR1 081339Z 03003KT M04/M06 A3028 RMK A01 T10371057  RH  086%=      5-min Rain = 0
KBR1 081340Z 03003KT M04/M06 A3028 RMK A01 T10381057  RH  086%=      5-min Rain = 0
KBR1 081341Z 03003KT M04/M06 A3028 RMK A01 T10381057  RH  086%=      5-min Rain = 0
KBR1 081342Z 03003KT M04/M06 A3028 RMK A01 T10381057  RH  086%=      5-min Rain = 0
KBR1 081343Z 03003KT M04/M06 A3028 RMK A01 T10381057  RH  086%=      5-min Rain = 0
KBR1 081344Z 02002KT M04/M06 A3028 RMK A01 T10381057  RH  086%=      5-min Rain = 0
KBR1 081345Z 02003KT M04/M06 A3028 RMK A01 T10381057  RH  086%=      5-min Rain = 0
KBR1 081346Z 02002KT M04/M06 A3028 RMK A01 T10381057  RH  086%=      5-min Rain = 0
KBR1 081347Z 02002KT M04/M06 A3028 RMK A01 T10381057  RH  086%=      5-min Rain = 0
KBR1 081348Z 02002KT M04/M06 A3028 RMK A01 T10381057  RH  086%=      5-min Rain = 0
KBR1 081349Z 01002KT M04/M06 A3028 RMK A01 T10381058  RH  086%=      5-min Rain = 0
KBR1 081350Z 02002KT M04/M06 A3028 RMK A01 T10381058  RH  086%=      5-min Rain = 0
KBR1 081351Z 01002KT M04/M06 A3028 RMK A01 T10381058  RH  086%=      5-min Rain = 0
KBR1 081352Z 01002KT M04/M06 A3028 RMK A01 T10391058  RH  086%=      5-min Rain = 0
KBR1 081353Z 00002KT M04/M06 A3029 RMK A01 T10391058  RH  086%=      5-min Rain = 0
KBR1 081354Z 01002KT M04/M06 A3028 RMK A01 T10391059  RH  087%=      5-min Rain = 0
KBR1 081355Z 01002KT M04/M06 A3028 RMK A01 T10391058  RH  087%=      5-min Rain = 0
KBR1 081356Z 01002KT M04/M06 A3028 RMK A01 T10391058  RH  087%=      5-min Rain = 0
KBR1 081357Z 02002KT M04/M06 A3028 RMK A01 T10391058  RH  087%=      5-min Rain = 0
KBR1 081358Z 02002KT M04/M06 A3028 RMK A01 T10401059  RH  087%=      5-min Rain = 0
KBR1 081359Z 02002KT M04/M06 A3028 RMK A01 T10401059  RH  087%=      5-min Rain = 0
KBR1 081400Z 01002KT M04/M06 A3028 RMK A01 T10411059  RH  087%=      5-min Rain = 0
KBR1 081401Z 02002KT M04/M06 A3028 RMK A01 T10411059  RH  087%=      5-min Rain = 0
KBR1 081402Z 02002KT M04/M06 A3028 RMK A01 T10411059  RH  087%=      5-min Rain = 0
KBR1 081403Z 02002KT M04/M06 A3028 RMK A01 T10411060  RH  087%=      5-min Rain = 0
KBR1 081404Z 02002KT M04/M06 A3028 RMK A01 T10411059  RH  087%=      5-min Rain = 0
KBR1 081405Z 01002KT M04/M06 A3028 RMK A01 T10411059  RH  087%=      5-min Rain = 0
KBR1 081406Z 01003KT M04/M06 A3028 RMK A01 T10411059  RH  087%=      5-min Rain = 0
KBR1 081407Z 01003KT M04/M06 A3028 RMK A01 T10411059  RH  087%=      5-min Rain = 0
KBR1 081408Z 01003KT M04/M06 A3028 RMK A01 T10411059  RH  087%=      5-min Rain = 0
KBR1 081409Z 01003KT M04/M06 A3028 RMK A01 T10411059  RH  087%=      5-min Rain = 0
KBR1 081410Z 01003KT M04/M06 A3028 RMK A01 T10411059  RH  087%=      5-min Rain = 0
KBR1 081411Z 01003KT M04/M06 A3028 RMK A01 T10411059  RH  088%=      5-min Rain = 0
KBR1 081412Z 01003KT M04/M06 A3028 RMK A01 T10411059  RH  087%=      5-min Rain = 0
KBR1 081413Z 01004KT M04/M06 A3028 RMK A01 T10411059  RH  087%=      5-min Rain = 0
KBR1 081414Z 01003KT M04/M06 A3028 RMK A01 T10411059  RH  087%=      5-min Rain = 0
KBR1 081415Z 01003KT M04/M06 A3028 RMK A01 T10411059  RH  088%=      5-min Rain = 0
KBR1 081416Z 01004KT M04/M06 A3028 RMK A01 T10411059  RH  088%=      5-min Rain = 0
KBR1 081417Z 01004KT M04/M06 A3028 RMK A01 T10411058  RH  088%=      5-min Rain = 0
KBR1 081418Z 00004KT M04/M06 A3028 RMK A01 T10411058  RH  088%=      5-min Rain = 0
KBR1 081419Z 00004KT M04/M06 A3028 RMK A01 T10401057  RH  088%=      5-min Rain = 0
KBR1 081420Z 00003KT M04/M06 A3028 RMK A01 T10401057  RH  088%=      5-min Rain = 0
KBR1 081421Z 36003KT M04/M06 A3028 RMK A01 T10401057  RH  088%=      5-min Rain = 0
KBR1 081422Z 36004KT M04/M06 A3028 RMK A01 T10391057  RH  088%=      5-min Rain = 0
KBR1 081423Z 36004KT M04/M06 A3028 RMK A01 T10391057  RH  088%=      5-min Rain = 0
KBR1 081424Z 35003KT M04/M06 A3028 RMK A01 T10391056  RH  088%=      5-min Rain = 0
KBR1 081425Z 35003KT M04/M06 A3028 RMK A01 T10381056  RH  087%=      5-min Rain = 0
KBR1 081426Z 35002KT M04/M06 A3029 RMK A01 T10381056  RH  087%=      5-min Rain = 0
KBR1 081427Z 35003KT M04/M06 A3029 RMK A01 T10381056  RH  087%=      5-min Rain = 0
KBR1 081428Z 35002KT M04/M06 A3029 RMK A01 T10381056  RH  087%=      5-min Rain = 0
KBR1 081429Z 00002KT M04/M06 A3029 RMK A01 T10371055  RH  087%=      5-min Rain = 0
KBR1 081430Z 01002KT M04/M06 A3029 RMK A01 T10371055  RH  087%=      5-min Rain = 0
KBR1 081431Z 01002KT M04/M05 A3029 RMK A01 T10371054  RH  088%=      5-min Rain = 0
KBR1 081432Z 03001KT M04/M05 A3029 RMK A01 T10361054  RH  088%=      5-min Rain = 0
KBR1 081433Z 03002KT M04/M05 A3029 RMK A01 T10351053  RH  088%=      5-min Rain = 0
KBR1 081434Z 02003KT M04/M05 A3029 RMK A01 T10351052  RH  087%=      5-min Rain = 0
KBR1 081435Z 02003KT M03/M05 A3029 RMK A01 T10341053  RH  087%=      5-min Rain = 0
KBR1 081436Z 02002KT M03/M05 A3029 RMK A01 T10341052  RH  087%=      5-min Rain = 0
KBR1 081437Z 02003KT M03/M05 A3029 RMK A01 T10331052  RH  087%=      5-min Rain = 0
KBR1 081438Z 02003KT M03/M05 A3029 RMK A01 T10331052  RH  087%=      5-min Rain = 0
KBR1 081439Z 02002KT M03/M05 A3029 RMK A01 T10331052  RH  086%=      5-min Rain = 0
KBR1 081440Z 02003KT M03/M05 A3029 RMK A01 T10321052  RH  086%=      5-min Rain = 0
KBR1 081441Z 02003KT M03/M05 A3029 RMK A01 T10321052  RH  086%=      5-min Rain = 0
KBR1 081442Z 02003KT M03/M05 A3028 RMK A01 T10321052  RH  086%=      5-min Rain = 0
KBR1 081443Z 02002KT M03/M05 A3028 RMK A01 T10311052  RH  086%=      5-min Rain = 0
KBR1 081444Z 02003KT M03/M05 A3028 RMK A01 T10311051  RH  086%=      5-min Rain = 0
KBR1 081445Z 02002KT M03/M05 A3028 RMK A01 T10301051  RH  085%=      5-min Rain = 0
KBR1 081446Z 01003KT M03/M05 A3028 RMK A01 T10301051  RH  085%=      5-min Rain = 0
KBR1 081447Z 01002KT M03/M05 A3028 RMK A01 T10301051  RH  085%=      5-min Rain = 0
KBR1 081448Z 01002KT M03/M05 A3028 RMK A01 T10301051  RH  085%=      5-min Rain = 0
KBR1 081449Z 01003KT M03/M05 A3028 RMK A01 T10291051  RH  085%=      5-min Rain = 0
KBR1 081450Z 02002KT M03/M05 A3028 RMK A01 T10291051  RH  085%=      5-min Rain = 0
KBR1 081451Z 01002KT M03/M05 A3028 RMK A01 T10291051  RH  085%=      5-min Rain = 0
KBR1 081452Z 01002KT M03/M05 A3028 RMK A01 T10281051  RH  084%=      5-min Rain = 0
KBR1 081453Z 02003KT M03/M05 A3028 RMK A01 T10271050  RH  084%=      5-min Rain = 0
KBR1 081454Z 01003KT M03/M05 A3028 RMK A01 T10271051  RH  084%=      5-min Rain = 0
KBR1 081455Z 01003KT M03/M05 A3028 RMK A01 T10261050  RH  084%=      5-min Rain = 0
KBR1 081456Z 01002KT M03/M05 A3028 RMK A01 T10261050  RH  083%=      5-min Rain = 0
KBR1 081457Z 01003KT M03/M05 A3028 RMK A01 T10251049  RH  083%=      5-min Rain = 0
KBR1 081458Z 00004KT M02/M05 A3028 RMK A01 T10241050  RH  082%=      5-min Rain = 0
KBR1 081459Z 00004KT M02/M05 A3028 RMK A01 T10241050  RH  082%=      5-min Rain = 0
KBR1 081500Z 36004KT M02/M05 A3028 RMK A01 T10231050  RH  082%=      5-min Rain = 0
KBR1 081501Z 36005KT M02/M05 A3029 RMK A01 T10231050  RH  082%=      5-min Rain = 0
KBR1 081502Z 34004KT M02/M05 A3028 RMK A01 T10231051  RH  081%=      5-min Rain = 0
KBR1 081503Z 36005KT M02/M05 A3028 RMK A01 T10231050  RH  081%=      5-min Rain = 0
KBR1 081504Z 36005KT M02/M05 A3028 RMK A01 T10221050  RH  081%=      5-min Rain = 0
KBR1 081505Z 00005KT M02/M05 A3028 RMK A01 T10211050  RH  081%=      5-min Rain = 0
KBR1 081506Z 00006KT M02/M05 A3028 RMK A01 T10211050  RH  080%=      5-min Rain = 0
KBR1 081507Z 01006KT M02/M05 A3028 RMK A01 T10201051  RH  080%=      5-min Rain = 0
KBR1 081508Z 00005KT M02/M05 A3028 RMK A01 T10201050  RH  080%=      5-min Rain = 0
KBR1 081509Z 01004KT M02/M05 A3028 RMK A01 T10191049  RH  080%=      5-min Rain = 0
KBR1 081510Z 01004KT M02/M05 A3028 RMK A01 T10181049  RH  080%=      5-min Rain = 0
KBR1 081511Z 00005KT M02/M05 A3029 RMK A01 T10171048  RH  079%=      5-min Rain = 0
KBR1 081512Z 36005KT M02/M05 A3029 RMK A01 T10161049  RH  078%=      5-min Rain = 0
KBR1 081513Z 36004KT M02/M05 A3029 RMK A01 T10151048  RH  078%=      5-min Rain = 0
KBR1 081514Z 36004KT M01/M05 A3029 RMK A01 T10141047  RH  078%=      5-min Rain = 0
KBR1 081515Z 01005KT M01/M05 A3029 RMK A01 T10131048  RH  077%=      5-min Rain = 0
KBR1 081516Z 01005KT M01/M05 A3029 RMK A01 T10131049  RH  077%=      5-min Rain = 0
KBR1 081517Z 01005KT M01/M05 A3029 RMK A01 T10131049  RH  077%=      5-min Rain = 0
KBR1 081518Z 00004KT M01/M05 A3029 RMK A01 T10131049  RH  076%=      5-min Rain = 0
KBR1 081519Z 01004KT M01/M05 A3029 RMK A01 T10121048  RH  076%=      5-min Rain = 0
KBR1 081520Z 01004KT M01/M05 A3029 RMK A01 T10111047  RH  076%=      5-min Rain = 0
KBR1 081521Z 00004KT M01/M05 A3029 RMK A01 T10101048  RH  075%=      5-min Rain = 0
KBR1 081522Z 36004KT M01/M05 A3029 RMK A01 T10091048  RH  075%=      5-min Rain = 0
KBR1 081523Z 01004KT M01/M05 A3029 RMK A01 T10091048  RH  075%=      5-min Rain = 0
KBR1 081524Z 02004KT M01/M05 A3029 RMK A01 T10091048  RH  075%=      5-min Rain = 0
KBR1 081525Z 01004KT M01/M05 A3029 RMK A01 T10081048  RH  074%=      5-min Rain = 0
KBR1 081526Z 01004KT M01/M05 A3029 RMK A01 T10071048  RH  074%=      5-min Rain = 0
KBR1 081527Z 00003KT M01/M05 A3029 RMK A01 T10061047  RH  074%=      5-min Rain = 0
KBR1 081528Z 02004KT M01/M05 A3029 RMK A01 T10061048  RH  073%=      5-min Rain = 0
KBR1 081529Z 02003KT M01/M05 A3029 RMK A01 T10051049  RH  072%=      5-min Rain = 0
KBR1 081530Z 02003KT M01/M05 A3029 RMK A01 T10051049  RH  072%=      5-min Rain = 0
KBR1 081531Z 02003KT M00/M05 A3029 RMK A01 T10041048  RH  072%=      5-min Rain = 0
KBR1 081532Z 04003KT M00/M05 A3029 RMK A01 T10031047  RH  072%=      5-min Rain = 0
KBR1 081533Z 03002KT M00/M05 A3029 RMK A01 T10021048  RH  071%=      5-min Rain = 0
KBR1 081534Z 02002KT M00/M05 A3029 RMK A01 T10011047  RH  071%=      5-min Rain = 0
KBR1 081535Z 01002KT 00/05 A3029 RMK A01 T00000-48  RH  070%=      5-min Rain = 0
KBR1 081536Z 03003KT 00/M05 A3029 RMK A01 T00011046  RH  071%=      5-min Rain = 0
KBR1 081537Z 05003KT 00/M05 A3029 RMK A01 T00011048  RH  069%=      5-min Rain = 0
KBR1 081538Z 04002KT 00/M05 A3029 RMK A01 T00011050  RH  068%=      5-min Rain = 0
KBR1 081539Z 02002KT 00/M05 A3029 RMK A01 T00021049  RH  068%=      5-min Rain = 0
KBR1 081540Z 05003KT 00/M05 A3029 RMK A01 T00031049  RH  068%=      5-min Rain = 0
KBR1 081541Z 04003KT 00/M05 A3029 RMK A01 T00041050  RH  067%=      5-min Rain = 0
KBR1 081542Z 06004KT 00/M05 A3029 RMK A01 T00041051  RH  067%=      5-min Rain = 0
KBR1 081543Z 04002KT 00/M05 A3029 RMK A01 T00041051  RH  066%=      5-min Rain = 0
KBR1 081544Z 06002KT 00/M05 A3029 RMK A01 T00031051  RH  067%=      5-min Rain = 0
KBR1 081545Z 06003KT 00/M05 A3029 RMK A01 T00041050  RH  067%=      5-min Rain = 0
KBR1 081546Z 07002KT 01/M05 A3029 RMK A01 T00051051  RH  066%=      5-min Rain = 0
KBR1 081547Z 05002KT 01/M05 A3029 RMK A01 T00061051  RH  066%=      5-min Rain = 0
KBR1 081548Z 05002KT 01/M05 A3029 RMK A01 T00081049  RH  066%=      5-min Rain = 0
KBR1 081549Z 03003KT 01/M05 A3029 RMK A01 T00091049  RH  065%=      5-min Rain = 0
KBR1 081550Z 05002KT 01/M05 A3029 RMK A01 T00081051  RH  064%=      5-min Rain = 0
KBR1 081551Z 05002KT 01/M05 A3029 RMK A01 T00081050  RH  065%=      5-min Rain = 0
KBR1 081552Z 05002KT 01/M05 A3029 RMK A01 T00071052  RH  065%=      5-min Rain = 0
KBR1 081553Z 06002KT 01/M05 A3029 RMK A01 T00081051  RH  065%=      5-min Rain = 0
KBR1 081554Z 08004KT 01/M05 A3029 RMK A01 T00091050  RH  065%=      5-min Rain = 0
KBR1 081555Z 08003KT 01/M05 A3029 RMK A01 T00101051  RH  064%=      5-min Rain = 0
KBR1 081556Z 07002KT 01/M05 A3029 RMK A01 T00091053  RH  063%=      5-min Rain = 0
KBR1 081557Z 08001KT 01/M05 A3029 RMK A01 T00091053  RH  063%=      5-min Rain = 0
KBR1 081558Z 10003KT 01/M05 A3029 RMK A01 T00101051  RH  064%=      5-min Rain = 0
KBR1 081559Z 10002KT 01/M05 A3029 RMK A01 T00121052  RH  063%=      5-min Rain = 0
KBR1 081600Z 12003KT 01/M05 A3029 RMK A01 T00121053  RH  062%=      5-min Rain = 0
KBR1 081601Z 10001KT 01/M05 A3029 RMK A01 T00121053  RH  062%=      5-min Rain = 0
KBR1 081602Z 08003KT 01/M05 A3029 RMK A01 T00131051  RH  062%=      5-min Rain = 0
KBR1 081603Z 07004KT 01/M05 A3029 RMK A01 T00131052  RH  062%=      5-min Rain = 0
KBR1 081604Z 07003KT 01/M05 A3029 RMK A01 T00121053  RH  062%=      5-min Rain = 0
KBR1 081605Z 09003KT 01/M05 A3029 RMK A01 T00121052  RH  062%=      5-min Rain = 0
KBR1 081606Z 08005KT 01/M05 A3029 RMK A01 T00141049  RH  062%=      5-min Rain = 0
KBR1 081607Z 08004KT 01/M05 A3029 RMK A01 T00141052  RH  061%=      5-min Rain = 0
KBR1 081608Z 07002KT 01/M05 A3029 RMK A01 T00121053  RH  062%=      5-min Rain = 0
KBR1 081609Z 10003KT 01/M05 A3029 RMK A01 T00121052  RH  062%=      5-min Rain = 0
KBR1 081610Z 11004KT 01/M05 A3029 RMK A01 T00131053  RH  062%=      5-min Rain = 0
KBR1 081611Z 11004KT 01/M05 A3029 RMK A01 T00121054  RH  061%=      5-min Rain = 0
KBR1 081612Z 11001KT 01/M05 A3029 RMK A01 T00121054  RH  061%=      5-min Rain = 0
KBR1 081613Z 08001KT 01/M05 A3029 RMK A01 T00131054  RH  061%=      5-min Rain = 0
KBR1 081614Z 09002KT 01/M05 A3029 RMK A01 T00131053  RH  062%=      5-min Rain = 0
KBR1 081615Z 11002KT 01/M05 A3029 RMK A01 T00141052  RH  061%=      5-min Rain = 0
KBR1 081616Z 11000KT 01/M05 A3029 RMK A01 T00141053  RH  061%=      5-min Rain = 0
KBR1 081617Z 09001KT 01/M05 A3029 RMK A01 T00141053  RH  061%=      5-min Rain = 0
KBR1 081618Z 11003KT 02/M05 A3029 RMK A01 T00161050  RH  061%=      5-min Rain = 0
KBR1 081619Z 11004KT 02/M05 A3029 RMK A01 T00171051  RH  061%=      5-min Rain = 0
KBR1 081620Z 13003KT 02/M05 A3029 RMK A01 T00161052  RH  060%=      5-min Rain = 0
KBR1 081621Z 12005KT 01/M05 A303 RMK A01 T00141053  RH  061%=      5-min Rain = 0
KBR1 081622Z 11006KT 01/M05 A303 RMK A01 T00141053  RH  061%=      5-min Rain = 0
KBR1 081623Z 10004KT 01/M05 A303 RMK A01 T00121054  RH  061%=      5-min Rain = 0
KBR1 081624Z 10004KT 01/M05 A303 RMK A01 T00121053  RH  062%=      5-min Rain = 0
KBR1 081625Z 10003KT 01/M05 A303 RMK A01 T00121052  RH  062%=      5-min Rain = 0
KBR1 081626Z 09003KT 02/M05 A303 RMK A01 T00151049  RH  062%=      5-min Rain = 0
KBR1 081627Z 04003KT 02/M05 A303 RMK A01 T00171050  RH  061%=      5-min Rain = 0
KBR1 081628Z 07001KT 02/M05 A303 RMK A01 T00171050  RH  061%=      5-min Rain = 0
KBR1 081629Z 10004KT 02/M05 A303 RMK A01 T00161050  RH  061%=      5-min Rain = 0
KBR1 081630Z 13003KT 02/M05 A303 RMK A01 T00151052  RH  061%=      5-min Rain = 0
KBR1 081631Z 13003KT 02/M05 A303 RMK A01 T00161052  RH  061%=      5-min Rain = 0
KBR1 081632Z 11004KT 02/M05 A303 RMK A01 T00171051  RH  061%=      5-min Rain = 0
KBR1 081633Z 11005KT 02/M05 A303 RMK A01 T00181050  RH  061%=      5-min Rain = 0
KBR1 081634Z 10004KT 02/M05 A303 RMK A01 T00191049  RH  060%=      5-min Rain = 0
KBR1 081635Z 11002KT 02/M05 A303 RMK A01 T00181051  RH  060%=      5-min Rain = 0
KBR1 081636Z 15001KT 02/M05 A303 RMK A01 T00171053  RH  060%=      5-min Rain = 0
KBR1 081637Z 10002KT 02/M05 A303 RMK A01 T00171052  RH  060%=      5-min Rain = 0
KBR1 081638Z 08002KT 02/M05 A303 RMK A01 T00191049  RH  060%=      5-min Rain = 0
KBR1 081639Z 11002KT 02/M05 A303 RMK A01 T00211049  RH  060%=      5-min Rain = 0
KBR1 081640Z 13003KT 02/M05 A303 RMK A01 T00221049  RH  060%=      5-min Rain = 0
KBR1 081641Z 13002KT 02/M05 A3031 RMK A01 T00211051  RH  059%=      5-min Rain = 0
KBR1 081642Z 14004KT 02/M05 A3031 RMK A01 T00211051  RH  059%=      5-min Rain = 0
KBR1 081643Z 15003KT 02/M05 A3031 RMK A01 T00211050  RH  059%=      5-min Rain = 0
KBR1 081644Z 15003KT 02/M05 A3031 RMK A01 T00201050  RH  060%=      5-min Rain = 0
KBR1 081645Z 18001KT 02/M05 A3031 RMK A01 T00201051  RH  059%=      5-min Rain = 0
KBR1 081646Z 22002KT 02/M05 A3031 RMK A01 T00191051  RH  060%=      5-min Rain = 0
KBR1 081647Z 24002KT 02/M05 A303 RMK A01 T00191051  RH  060%=      5-min Rain = 0
KBR1 081648Z 22002KT 02/M05 A303 RMK A01 T00191051  RH  060%=      5-min Rain = 0
KBR1 081649Z 16004KT 02/M05 A303 RMK A01 T00191050  RH  060%=      5-min Rain = 0
KBR1 081650Z 15004KT 02/M05 A303 RMK A01 T00191051  RH  060%=      5-min Rain = 0
KBR1 081651Z 17005KT 02/M05 A303 RMK A01 T00201051  RH  059%=      5-min Rain = 0
KBR1 081652Z 18002KT 02/M05 A303 RMK A01 T00211050  RH  059%=      5-min Rain = 0
KBR1 081653Z 17006KT 02/M05 A303 RMK A01 T00211050  RH  059%=      5-min Rain = 0
KBR1 081654Z 15007KT 02/M05 A303 RMK A01 T00221050  RH  059%=      5-min Rain = 0
KBR1 081655Z 14004KT 02/M05 A303 RMK A01 T00211051  RH  059%=      5-min Rain = 0
KBR1 081656Z 18002KT 02/M05 A303 RMK A01 T00201052  RH  059%=      5-min Rain = 0
KBR1 081657Z 19004KT 02/M05 A303 RMK A01 T00201051  RH  059%=      5-min Rain = 0
KBR1 081658Z 20002KT 02/M05 A303 RMK A01 T00201051  RH  059%=      5-min Rain = 0
KBR1 081659Z 25002KT 02/M05 A303 RMK A01 T00201052  RH  059%=      5-min Rain = 0
KBR1 081700Z 27003KT 02/M05 A303 RMK A01 T00181053  RH  059%=      5-min Rain = 0
KBR1 081701Z 23002KT 02/M05 A303 RMK A01 T00181052  RH  060%=      5-min Rain = 0
KBR1 081702Z 17004KT 02/M05 A303 RMK A01 T00181051  RH  060%=      5-min Rain = 0
KBR1 081703Z 15004KT 02/M05 A303 RMK A01 T00211047  RH  061%=      5-min Rain = 0
KBR1 081704Z 18003KT 02/M05 A303 RMK A01 T00241049  RH  059%=      5-min Rain = 0
KBR1 081705Z 21003KT 02/M05 A303 RMK A01 T00231051  RH  058%=      5-min Rain = 0
KBR1 081706Z 22003KT 03/M05 A303 RMK A01 T00251048  RH  059%=      5-min Rain = 0
KBR1 081707Z 26001KT 03/M05 A303 RMK A01 T00251050  RH  058%=      5-min Rain = 0
KBR1 081708Z 08002KT 03/M05 A303 RMK A01 T00251049  RH  058%=      5-min Rain = 0
KBR1 081709Z 10003KT 03/M05 A303 RMK A01 T00261049  RH  058%=      5-min Rain = 0
KBR1 081710Z 15003KT 03/M05 A303 RMK A01 T00271049  RH  057%=      5-min Rain = 0
KBR1 081711Z 16001KT 03/M05 A303 RMK A01 T00261052  RH  057%=      5-min Rain = 0
KBR1 081712Z 08002KT 02/M05 A303 RMK A01 T00241052  RH  057%=      5-min Rain = 0
KBR1 081713Z 11002KT 02/M05 A303 RMK A01 T00231052  RH  058%=      5-min Rain = 0
KBR1 081714Z 14002KT 02/M05 A303 RMK A01 T00231051  RH  058%=      5-min Rain = 0
KBR1 081715Z 08002KT 02/M05 A303 RMK A01 T00231051  RH  058%=      5-min Rain = 0
KBR1 081716Z 10004KT 02/M05 A303 RMK A01 T00231051  RH  058%=      5-min Rain = 0
KBR1 081717Z 10003KT 02/M05 A303 RMK A01 T00231051  RH  058%=      5-min Rain = 0
KBR1 081718Z 11004KT 02/M05 A303 RMK A01 T00241050  RH  058%=      5-min Rain = 0
KBR1 081719Z 11004KT 02/M05 A303 RMK A01 T00241051  RH  058%=      5-min Rain = 0
KBR1 081720Z 13003KT 02/M05 A303 RMK A01 T00231052  RH  058%=      5-min Rain = 0
KBR1 081721Z 14004KT 02/M05 A303 RMK A01 T00231052  RH  058%=      5-min Rain = 0
KBR1 081722Z 11003KT 02/M05 A303 RMK A01 T00221053  RH  058%=      5-min Rain = 0
KBR1 081723Z 10002KT 02/M05 A303 RMK A01 T00211052  RH  059%=      5-min Rain = 0
KBR1 081724Z 14001KT 02/M05 A303 RMK A01 T00221052  RH  058%=      5-min Rain = 0
KBR1 081725Z 10001KT 02/M05 A303 RMK A01 T00231052  RH  058%=      5-min Rain = 0
KBR1 081726Z 09004KT 02/M05 A303 RMK A01 T00231052  RH  057%=      5-min Rain = 0
KBR1 081727Z 11001KT 02/M05 A303 RMK A01 T00221053  RH  057%=      5-min Rain = 0
KBR1 081728Z 09003KT 02/M05 A303 RMK A01 T00231051  RH  058%=      5-min Rain = 0
KBR1 081729Z 06002KT 02/M05 A303 RMK A01 T00241052  RH  058%=      5-min Rain = 0
KBR1 081730Z 08002KT 02/M05 A303 RMK A01 T00231052  RH  058%=      5-min Rain = 0
KBR1 081731Z 09001KT 02/M05 A303 RMK A01 T00241050  RH  058%=      5-min Rain = 0
KBR1 081732Z 09002KT 03/M05 A303 RMK A01 T00271049  RH  057%=      5-min Rain = 0
KBR1 081733Z 07002KT 03/M05 A303 RMK A01 T00301049  RH  056%=      5-min Rain = 0
KBR1 081734Z 08002KT 03/M05 A303 RMK A01 T00301049  RH  056%=      5-min Rain = 0
KBR1 081735Z 08000KT 03/M05 A303 RMK A01 T00311050  RH  055%=      5-min Rain = 0
KBR1 081736Z 03001KT 03/M05 A303 RMK A01 T00311050  RH  055%=      5-min Rain = 0
KBR1 081737Z 02002KT 03/M05 A303 RMK A01 T00341048  RH  055%=      5-min Rain = 0
KBR1 081738Z 07001KT 03/M05 A303 RMK A01 T00331050  RH  054%=      5-min Rain = 0
KBR1 081739Z 03001KT 03/M05 A303 RMK A01 T00311052  RH  055%=      5-min Rain = 0
KBR1 081740Z 03001KT 03/M05 A303 RMK A01 T00301051  RH  055%=      5-min Rain = 0
KBR1 081741Z 31001KT 03/M05 A303 RMK A01 T00311050  RH  055%=      5-min Rain = 0
KBR1 081742Z 00002KT 03/M05 A303 RMK A01 T00331047  RH  056%=      5-min Rain = 0
KBR1 081743Z 17001KT 04/M05 A303 RMK A01 T00361047  RH  055%=      5-min Rain = 0
KBR1 081744Z 19002KT 04/M05 A303 RMK A01 T00361049  RH  054%=      5-min Rain = 0
KBR1 081745Z 16002KT 04/M05 A303 RMK A01 T00361050  RH  054%=      5-min Rain = 0
KBR1 081746Z 14002KT 04/M05 A303 RMK A01 T00371050  RH  053%=      5-min Rain = 0
KBR1 081747Z 07003KT 04/M05 A303 RMK A01 T00381049  RH  053%=      5-min Rain = 0
KBR1 081748Z 14004KT 04/M05 A303 RMK A01 T00391048  RH  053%=      5-min Rain = 0
KBR1 081749Z 00001KT 04/M05 A303 RMK A01 T00391048  RH  053%=      5-min Rain = 0
KBR1 081750Z 33003KT 04/M05 A303 RMK A01 T00401049  RH  052%=      5-min Rain = 0
KBR1 081751Z 32002KT 04/M05 A303 RMK A01 T00391049  RH  053%=      5-min Rain = 0
KBR1 081752Z 23002KT 04/M05 A303 RMK A01 T00381049  RH  053%=      5-min Rain = 0
KBR1 081753Z 14002KT 04/M05 A303 RMK A01 T00381048  RH  053%=      5-min Rain = 0
KBR1 081754Z 15003KT 04/M05 A303 RMK A01 T00391049  RH  053%=      5-min Rain = 0
KBR1 081755Z 10002KT 04/M05 A303 RMK A01 T00381051  RH  052%=      5-min Rain = 0
KBR1 081756Z 08002KT 04/M05 A303 RMK A01 T00361052  RH  053%=      5-min Rain = 0
KBR1 081757Z 05002KT 04/M05 A303 RMK A01 T00351051  RH  053%=      5-min Rain = 0
KBR1 081758Z 13003KT 04/M05 A303 RMK A01 T00351050  RH  054%=      5-min Rain = 0
KBR1 081759Z 15003KT 03/M05 A303 RMK A01 T00341050  RH  054%=      5-min Rain = 0
KBR1 081800Z 14002KT 03/M05 A303 RMK A01 T00331050  RH  054%=      5-min Rain = 0
KBR1 081801Z 10001KT 04/M05 A303 RMK A01 T00351049  RH  054%=      5-min Rain = 0
KBR1 081802Z 08002KT 04/M05 A303 RMK A01 T00351050  RH  054%=      5-min Rain = 0
KBR1 081803Z 11002KT 04/M05 A303 RMK A01 T00351049  RH  054%=      5-min Rain = 0
KBR1 081804Z 12003KT 04/M05 A303 RMK A01 T00361048  RH  054%=      5-min Rain = 0
KBR1 081805Z 12005KT 04/M05 A303 RMK A01 T00361048  RH  054%=      5-min Rain = 0
KBR1 081806Z 10004KT 04/M05 A3029 RMK A01 T00351048  RH  054%=      5-min Rain = 0
KBR1 081807Z 09004KT 04/M05 A3029 RMK A01 T00361048  RH  054%=      5-min Rain = 0
KBR1 081808Z 08005KT 04/M05 A3029 RMK A01 T00361048  RH  054%=      5-min Rain = 0
KBR1 081809Z 08003KT 04/M05 A3029 RMK A01 T00351050  RH  054%=      5-min Rain = 0
KBR1 081810Z 05002KT 03/M05 A3029 RMK A01 T00341051  RH  054%=      5-min Rain = 0
KBR1 081811Z 13004KT 03/M05 A3029 RMK A01 T00341049  RH  055%=      5-min Rain = 0
KBR1 081812Z 12006KT 04/M05 A3029 RMK A01 T00361047  RH  054%=      5-min Rain = 0
KBR1 081813Z 12006KT 04/M05 A3029 RMK A01 T00371049  RH  054%=      5-min Rain = 0
KBR1 081814Z 12004KT 04/M05 A3029 RMK A01 T00351050  RH  054%=      5-min Rain = 0
KBR1 081815Z 15003KT 04/M05 A3029 RMK A01 T00351049  RH  054%=      5-min Rain = 0
KBR1 081816Z 20003KT 04/M05 A3029 RMK A01 T00361048  RH  054%=      5-min Rain = 0
KBR1 081817Z 25001KT 04/M05 A3029 RMK A01 T00371049  RH  053%=      5-min Rain = 0
KBR1 081818Z 20003KT 04/M05 A3028 RMK A01 T00361049  RH  054%=      5-min Rain = 0
KBR1 081819Z 16004KT 04/M05 A3028 RMK A01 T00381048  RH  054%=      5-min Rain = 0
KBR1 081820Z 16006KT 04/M05 A3028 RMK A01 T00391047  RH  053%=      5-min Rain = 0
KBR1 081821Z 14006KT 04/M05 A3028 RMK A01 T00401048  RH  053%=      5-min Rain = 0
KBR1 081822Z 11005KT 04/M05 A3028 RMK A01 T00391048  RH  053%=      5-min Rain = 0
KBR1 081823Z 14008KT 04/M05 A3028 RMK A01 T00371049  RH  053%=      5-min Rain = 0
KBR1 081824Z 20005KT 04/M05 A3028 RMK A01 T00381047  RH  054%=      5-min Rain = 0
KBR1 081825Z 18005KT 04/M05 A3028 RMK A01 T00391048  RH  053%=      5-min Rain = 0
KBR1 081826Z 16007KT 04/M05 A3028 RMK A01 T00381049  RH  053%=      5-min Rain = 0
KBR1 081827Z 13007KT 04/M05 A3028 RMK A01 T00371049  RH  053%=      5-min Rain = 0
KBR1 081828Z 14006KT 04/M05 A3028 RMK A01 T00361049  RH  054%=      5-min Rain = 0
KBR1 081829Z 12006KT 04/M05 A3027 RMK A01 T00351049  RH  054%=      5-min Rain = 0
KBR1 081830Z 12003KT 04/M05 A3027 RMK A01 T00351050  RH  054%=      5-min Rain = 0
KBR1 081831Z 12004KT 04/M05 A3027 RMK A01 T00351049  RH  054%=      5-min Rain = 0
KBR1 081832Z 07002KT 04/M05 A3027 RMK A01 T00351049  RH  054%=      5-min Rain = 0
KBR1 081833Z 05002KT 04/M05 A3027 RMK A01 T00361048  RH  054%=      5-min Rain = 0
KBR1 081834Z 10002KT 04/M05 A3027 RMK A01 T00381047  RH  054%=      5-min Rain = 0
KBR1 081835Z 12006KT 04/M05 A3027 RMK A01 T00391048  RH  053%=      5-min Rain = 0
KBR1 081836Z 10006KT 04/M05 A3027 RMK A01 T00411046  RH  053%=      5-min Rain = 0
KBR1 081837Z 07004KT 04/M05 A3027 RMK A01 T00381051  RH  052%=      5-min Rain = 0
KBR1 081838Z 09005KT 04/M05 A3027 RMK A01 T00351051  RH  053%=      5-min Rain = 0
KBR1 081839Z 08005KT 04/M05 A3027 RMK A01 T00351050  RH  054%=      5-min Rain = 0
KBR1 081840Z 09007KT 04/M05 A3026 RMK A01 T00351049  RH  054%=      5-min Rain = 0
KBR1 081841Z 09005KT 04/M05 A3026 RMK A01 T00361049  RH  054%=      5-min Rain = 0
KBR1 081842Z 15005KT 04/M05 A3026 RMK A01 T00371048  RH  054%=      5-min Rain = 0
KBR1 081843Z 17005KT 04/M05 A3026 RMK A01 T00401047  RH  053%=      5-min Rain = 0
KBR1 081844Z 18005KT 04/M05 A3026 RMK A01 T00391050  RH  052%=      5-min Rain = 0
KBR1 081845Z 19005KT 04/M05 A3026 RMK A01 T00391048  RH  053%=      5-min Rain = 0
KBR1 081846Z 19006KT 04/M05 A3026 RMK A01 T00411048  RH  052%=      5-min Rain = 0
KBR1 081847Z 21005KT 04/M05 A3026 RMK A01 T00411049  RH  052%=      5-min Rain = 0
KBR1 081848Z 21005KT 04/M05 A3026 RMK A01 T00401049  RH  052%=      5-min Rain = 0
KBR1 081849Z 22005KT 04/M05 A3026 RMK A01 T00411049  RH  052%=      5-min Rain = 0
KBR1 081850Z 20006KT 04/M05 A3026 RMK A01 T00401049  RH  052%=      5-min Rain = 0
KBR1 081851Z 22006KT 04/M05 A3026 RMK A01 T00401049  RH  052%=      5-min Rain = 0
KBR1 081852Z 19006KT 04/M05 A3026 RMK A01 T00391050  RH  052%=      5-min Rain = 0
KBR1 081853Z 18003KT 04/M05 A3026 RMK A01 T00401048  RH  053%=      5-min Rain = 0
KBR1 081854Z 17002KT 04/M05 A3026 RMK A01 T00431046  RH  052%=      5-min Rain = 0
KBR1 081855Z 33002KT 04/M05 A3025 RMK A01 T00441048  RH  051%=      5-min Rain = 0
KBR1 081856Z 12002KT 04/M05 A3025 RMK A01 T00441047  RH  051%=      5-min Rain = 0
KBR1 081857Z 10005KT 05/M05 A3025 RMK A01 T00451048  RH  051%=      5-min Rain = 0
KBR1 081858Z 09007KT 04/M05 A3025 RMK A01 T00441049  RH  051%=      5-min Rain = 0
KBR1 081859Z 09006KT 04/M05 A3025 RMK A01 T00431049  RH  051%=      5-min Rain = 0
KBR1 081900Z 13006KT 04/M05 A3025 RMK A01 T00441047  RH  052%=      5-min Rain = 0
KBR1 081901Z 10005KT 05/M05 A3025 RMK A01 T00451047  RH  051%=      5-min Rain = 0
KBR1 081902Z 12006G11KT 05/M05 A3025 RMK A01 T00451047  RH  051%=      5-min Rain = 0
KBR1 081903Z 17006KT 05/M05 A3025 RMK A01 T00471047  RH  051%=      5-min Rain = 0
KBR1 081904Z 16006KT 05/M05 A3025 RMK A01 T00471048  RH  050%=      5-min Rain = 0
KBR1 081905Z 17005KT 05/M05 A3025 RMK A01 T00451050  RH  050%=      5-min Rain = 0
KBR1 081906Z 20006KT 05/M05 A3025 RMK A01 T00451048  RH  051%=      5-min Rain = 0
KBR1 081907Z 19005KT 04/M05 A3024 RMK A01 T00441049  RH  051%=      5-min Rain = 0
KBR1 081908Z 17003KT 04/M05 A3024 RMK A01 T00441049  RH  051%=      5-min Rain = 0
KBR1 081909Z 12003KT 05/M05 A3024 RMK A01 T00451048  RH  051%=      5-min Rain = 0
KBR1 081910Z 12003KT 05/M05 A3024 RMK A01 T00461049  RH  050%=      5-min Rain = 0
KBR1 081911Z 15003KT 05/M05 A3024 RMK A01 T00451050  RH  050%=      5-min Rain = 0
KBR1 081912Z 15002KT 04/M05 A3024 RMK A01 T00441049  RH  051%=      5-min Rain = 0
KBR1 081913Z 17003KT 05/M05 A3024 RMK A01 T00461049  RH  050%=      5-min Rain = 0
KBR1 081914Z 21004KT 05/M05 A3024 RMK A01 T00481046  RH  050%=      5-min Rain = 0
KBR1 081915Z 18002KT 05/M05 A3024 RMK A01 T00481048  RH  050%=      5-min Rain = 0
KBR1 081916Z 09003KT 05/M05 A3024 RMK A01 T00481048  RH  050%=      5-min Rain = 0
KBR1 081917Z 15004KT 05/M05 A3024 RMK A01 T00501046  RH  050%=      5-min Rain = 0
KBR1 081918Z 13003KT 05/M05 A3024 RMK A01 T00511048  RH  049%=      5-min Rain = 0
KBR1 081919Z 15002KT 05/M05 A3024 RMK A01 T00491050  RH  049%=      5-min Rain = 0
KBR1 081920Z 12004KT 05/M05 A3024 RMK A01 T00481049  RH  049%=      5-min Rain = 0
KBR1 081921Z 12005KT 05/M05 A3023 RMK A01 T00481048  RH  049%=      5-min Rain = 0
KBR1 081922Z 16005KT 05/M05 A3023 RMK A01 T00491048  RH  049%=      5-min Rain = 0
KBR1 081923Z 14005KT 05/M05 A3023 RMK A01 T00491048  RH  049%=      5-min Rain = 0
KBR1 081924Z 12003KT 05/M05 A3023 RMK A01 T00501047  RH  049%=      5-min Rain = 0
KBR1 081925Z 11005KT 05/M05 A3023 RMK A01 T00511047  RH  049%=      5-min Rain = 0
KBR1 081926Z 07002KT 05/M05 A3023 RMK A01 T00501049  RH  049%=      5-min Rain = 0
KBR1 081927Z 15002KT 05/M05 A3023 RMK A01 T00491049  RH  049%=      5-min Rain = 0
KBR1 081928Z 16003KT 05/M05 A3023 RMK A01 T00491048  RH  049%=      5-min Rain = 0
KBR1 081929Z 12003KT 05/M05 A3023 RMK A01 T00481049  RH  049%=      5-min Rain = 0
KBR1 081930Z 17004G9KT 05/M05 A3023 RMK A01 T00481049  RH  049%=      5-min Rain = 0
KBR1 081931Z 17008KT 05/M05 A3023 RMK A01 T00491047  RH  050%=      5-min Rain = 0
KBR1 081932Z 17006KT 05/M05 A3023 RMK A01 T00501049  RH  049%=      5-min Rain = 0
KBR1 081933Z 16007KT 05/M05 A3023 RMK A01 T00501047  RH  049%=      5-min Rain = 0
KBR1 081934Z 17005KT 05/M05 A3023 RMK A01 T00531046  RH  049%=      5-min Rain = 0
KBR1 081935Z 16004KT 05/M05 A3023 RMK A01 T00511049  RH  048%=      5-min Rain = 0
KBR1 081936Z 17005KT 05/M05 A3023 RMK A01 T00501050  RH  049%=      5-min Rain = 0
KBR1 081937Z 18003KT 05/M05 A3023 RMK A01 T00481050  RH  049%=      5-min Rain = 0
KBR1 081938Z 16003KT 05/M05 A3023 RMK A01 T00481049  RH  049%=      5-min Rain = 0
KBR1 081939Z 14003KT 05/M05 A3023 RMK A01 T00481049  RH  049%=      5-min Rain = 0
KBR1 081940Z 17002KT 05/M05 A3023 RMK A01 T00471050  RH  049%=      5-min Rain = 0
KBR1 081941Z 16002KT 05/M05 A3023 RMK A01 T00471049  RH  049%=      5-min Rain = 0
KBR1 081942Z 12002KT 05/M05 A3023 RMK A01 T00491049  RH  049%=      5-min Rain = 0
KBR1 081943Z 08001KT 05/M05 A3023 RMK A01 T00491049  RH  049%=      5-min Rain = 0
KBR1 081944Z 11004KT 05/M05 A3023 RMK A01 T00501048  RH  049%=      5-min Rain = 0
KBR1 081945Z 10005KT 05/M05 A3023 RMK A01 T00511048  RH  049%=      5-min Rain = 0
KBR1 081946Z 10003KT 05/M05 A3023 RMK A01 T00481051  RH  049%=      5-min Rain = 0
KBR1 081947Z 12003KT 05/M05 A3023 RMK A01 T00471050  RH  049%=      5-min Rain = 0
KBR1 081948Z 09002KT 05/M05 A3023 RMK A01 T00461050  RH  050%=      5-min Rain = 0
KBR1 081949Z 15002KT 05/M05 A3023 RMK A01 T00481048  RH  050%=      5-min Rain = 0
KBR1 081950Z 13001KT 05/M05 A3023 RMK A01 T00501049  RH  049%=      5-min Rain = 0
KBR1 081951Z 09000KT 05/M05 A3023 RMK A01 T00501049  RH  049%=      5-min Rain = 0
KBR1 081952Z 00000KT 05/M05 A3023 RMK A01 T00501049  RH  049%=      5-min Rain = 0
KBR1 081953Z 07000KT 05/M05 A3022 RMK A01 T00511049  RH  049%=      5-min Rain = 0
KBR1 081954Z 09001KT 05/M05 A3022 RMK A01 T00511049  RH  048%=      5-min Rain = 0
KBR1 081955Z 10002KT 05/M05 A3022 RMK A01 T00511049  RH  048%=      5-min Rain = 0
KBR1 081956Z 12001KT 05/M05 A3022 RMK A01 T00511049  RH  048%=      5-min Rain = 0
KBR1 081957Z 17001KT 05/M05 A3022 RMK A01 T00521048  RH  048%=      5-min Rain = 0
KBR1 081958Z 21001KT 05/M05 A3022 RMK A01 T00531049  RH  048%=      5-min Rain = 0
KBR1 081959Z 22002KT 05/M05 A3022 RMK A01 T00531049  RH  047%=      5-min Rain = 0
KBR1 082000Z 22002KT 05/M05 A3022 RMK A01 T00531049  RH  047%=      5-min Rain = 0
KBR1 082001Z 24001KT 05/M05 A3022 RMK A01 T00531049  RH  047%=      5-min Rain = 0
KBR1 082002Z 24000KT 05/M05 A3022 RMK A01 T00531049  RH  048%=      5-min Rain = 0
KBR1 082003Z 05002KT 05/M05 A3022 RMK A01 T00541049  RH  047%=      5-min Rain = 0
KBR1 082004Z 04003KT 06/M05 A3022 RMK A01 T00561046  RH  048%=      5-min Rain = 0
KBR1 082005Z 05002KT 06/M05 A3022 RMK A01 T00571047  RH  047%=      5-min Rain = 0
KBR1 082006Z 08001KT 06/M05 A3022 RMK A01 T00561048  RH  047%=      5-min Rain = 0
KBR1 082007Z 14001KT 06/M05 A3022 RMK A01 T00561047  RH  048%=      5-min Rain = 0
KBR1 082008Z 09002KT 06/M05 A3022 RMK A01 T00581047  RH  047%=      5-min Rain = 0
KBR1 082009Z 11002KT 06/M05 A3022 RMK A01 T00581048  RH  047%=      5-min Rain = 0
KBR1 082010Z 17002KT 06/M05 A3022 RMK A01 T00591047  RH  047%=      5-min Rain = 0
KBR1 082011Z 17005KT 06/M05 A3022 RMK A01 T00601047  RH  046%=      5-min Rain = 0
KBR1 082012Z 17004KT 06/M05 A3021 RMK A01 T00601048  RH  046%=      5-min Rain = 0
KBR1 082013Z 16003KT 06/M05 A3021 RMK A01 T00591049  RH  046%=      5-min Rain = 0
KBR1 082014Z 16002KT 06/M05 A3021 RMK A01 T00581049  RH  046%=      5-min Rain = 0
KBR1 082015Z 15003KT 06/M05 A3021 RMK A01 T00571049  RH  046%=      5-min Rain = 0
KBR1 082016Z 12003KT 06/M05 A3021 RMK A01 T00581047  RH  047%=      5-min Rain = 0
KBR1 082017Z 12004KT 06/M05 A3021 RMK A01 T00591048  RH  046%=      5-min Rain = 0
KBR1 082018Z 15004KT 06/M05 A3021 RMK A01 T00581047  RH  047%=      5-min Rain = 0
KBR1 082019Z 16004KT 06/M05 A3021 RMK A01 T00591048  RH  046%=      5-min Rain = 0
KBR1 082020Z 17003KT 06/M05 A3021 RMK A01 T00581049  RH  046%=      5-min Rain = 0
KBR1 082021Z 22002KT 06/M05 A3021 RMK A01 T00561050  RH  046%=      5-min Rain = 0
KBR1 082022Z 20003KT 06/M05 A3021 RMK A01 T00561049  RH  047%=      5-min Rain = 0
KBR1 082023Z 19003KT 06/M05 A3021 RMK A01 T00591046  RH  047%=      5-min Rain = 0
KBR1 082024Z 21003KT 06/M05 A3021 RMK A01 T00621045  RH  046%=      5-min Rain = 0
KBR1 082025Z 15007KT 06/M05 A3021 RMK A01 T00621047  RH  045%=      5-min Rain = 0
KBR1 082026Z 14006KT 06/M05 A3021 RMK A01 T00601049  RH  045%=      5-min Rain = 0
KBR1 082027Z 17006KT 06/M05 A3021 RMK A01 T00591049  RH  046%=      5-min Rain = 0
KBR1 082028Z 17004KT 06/M05 A3021 RMK A01 T00561050  RH  046%=      5-min Rain = 0
KBR1 082029Z 16005KT 06/M05 A302 RMK A01 T00561048  RH  047%=      5-min Rain = 0
KBR1 082030Z 15003KT 06/M05 A302 RMK A01 T00571048  RH  047%=      5-min Rain = 0
KBR1 082031Z 21003KT 06/M05 A302 RMK A01 T00571049  RH  046%=      5-min Rain = 0
KBR1 082032Z 22003KT 06/M05 A302 RMK A01 T00571049  RH  046%=      5-min Rain = 0
KBR1 082033Z 20003KT 06/M05 A302 RMK A01 T00581048  RH  046%=      5-min Rain = 0
KBR1 082034Z 19004KT 06/M05 A302 RMK A01 T00601046  RH  047%=      5-min Rain = 0
KBR1 082035Z 15005KT 06/M05 A302 RMK A01 T00621046  RH  046%=      5-min Rain = 0
KBR1 082036Z 15007KT 06/M05 A302 RMK A01 T00611048  RH  045%=      5-min Rain = 0
KBR1 082037Z 14004KT 06/M05 A302 RMK A01 T00591050  RH  045%=      5-min Rain = 0
KBR1 082038Z 17002KT 06/M05 A302 RMK A01 T00591049  RH  046%=      5-min Rain = 0
KBR1 082039Z 21000KT 06/M05 A302 RMK A01 T00601048  RH  046%=      5-min Rain = 0
KBR1 082040Z 19003KT 06/M05 A302 RMK A01 T00621046  RH  046%=      5-min Rain = 0
KBR1 082041Z 21003KT 06/M05 A302 RMK A01 T00631047  RH  045%=      5-min Rain = 0
KBR1 082042Z 22002KT 06/M05 A302 RMK A01 T00621048  RH  045%=      5-min Rain = 0
KBR1 082043Z 07004KT 06/M05 A302 RMK A01 T00621048  RH  045%=      5-min Rain = 0
KBR1 082044Z 12003KT 06/M05 A302 RMK A01 T00621047  RH  045%=      5-min Rain = 0
KBR1 082045Z 10004KT 06/M05 A302 RMK A01 T00621048  RH  045%=      5-min Rain = 0
KBR1 082046Z 13004KT 06/M05 A302 RMK A01 T00621048  RH  045%=      5-min Rain = 0
KBR1 082047Z 17005KT 06/M05 A302 RMK A01 T00621047  RH  045%=      5-min Rain = 0
KBR1 082048Z 18004KT 06/M05 A302 RMK A01 T00621048  RH  045%=      5-min Rain = 0
KBR1 082049Z 16003KT 06/M05 A302 RMK A01 T00621049  RH  045%=      5-min Rain = 0
KBR1 082050Z 11004KT 06/M05 A3021 RMK A01 T00611049  RH  045%=      5-min Rain = 0
KBR1 082051Z 13003KT 06/M05 A3021 RMK A01 T00591051  RH  045%=      5-min Rain = 0
KBR1 082052Z 13005KT 06/M05 A302 RMK A01 T00581049  RH  046%=      5-min Rain = 0
KBR1 082053Z 11006KT 06/M05 A3021 RMK A01 T00611047  RH  046%=      5-min Rain = 0
KBR1 082054Z 10005KT 06/M05 A3021 RMK A01 T00601049  RH  045%=      5-min Rain = 0
KBR1 082055Z 12007KT 06/M05 A3021 RMK A01 T00591049  RH  046%=      5-min Rain = 0
KBR1 082056Z 11005KT 06/M05 A3021 RMK A01 T00611047  RH  046%=      5-min Rain = 0
KBR1 082057Z 13003KT 06/M05 A3021 RMK A01 T00601049  RH  045%=      5-min Rain = 0
KBR1 082058Z 10006KT 06/M05 A3021 RMK A01 T00601049  RH  045%=      5-min Rain = 0
KBR1 082059Z 09004KT 06/M05 A3021 RMK A01 T00591049  RH  045%=      5-min Rain = 0
KBR1 082100Z 07001KT 06/M05 A3021 RMK A01 T00581050  RH  046%=      5-min Rain = 0
KBR1 082101Z 08005KT 06/M05 A3021 RMK A01 T00571049  RH  046%=      5-min Rain = 0
KBR1 082102Z 08005KT 06/M05 A302 RMK A01 T00581048  RH  046%=      5-min Rain = 0
KBR1 082103Z 08005KT 06/M05 A302 RMK A01 T00581049  RH  046%=      5-min Rain = 0
KBR1 082104Z 10005KT 06/M05 A302 RMK A01 T00581048  RH  046%=      5-min Rain = 0
KBR1 082105Z 07002KT 06/M05 A302 RMK A01 T00581048  RH  046%=      5-min Rain = 0
KBR1 082106Z 13003KT 06/M05 A302 RMK A01 T00591047  RH  046%=      5-min Rain = 0
KBR1 082107Z 14007KT 06/M05 A302 RMK A01 T00611047  RH  046%=      5-min Rain = 0
KBR1 082108Z 15008KT 06/M05 A302 RMK A01 T00601049  RH  045%=      5-min Rain = 0
KBR1 082109Z 15007KT 06/M05 A302 RMK A01 T00591049  RH  046%=      5-min Rain = 0
KBR1 082110Z 14006KT 06/M05 A302 RMK A01 T00591048  RH  046%=      5-min Rain = 0
KBR1 082111Z 14006KT 06/M05 A302 RMK A01 T00601048  RH  046%=      5-min Rain = 0
KBR1 082112Z 14005KT 06/M05 A302 RMK A01 T00601048  RH  046%=      5-min Rain = 0
KBR1 082113Z 14005KT 06/M05 A302 RMK A01 T00601048  RH  046%=      5-min Rain = 0
KBR1 082114Z 15002KT 06/M05 A3021 RMK A01 T00591050  RH  046%=      5-min Rain = 0
KBR1 082115Z 11002KT 06/M05 A3021 RMK A01 T00581050  RH  046%=      5-min Rain = 0
KBR1 082116Z 11005KT 06/M05 A3021 RMK A01 T00591048  RH  046%=      5-min Rain = 0
KBR1 082117Z 11004KT 06/M05 A302 RMK A01 T00591049  RH  046%=      5-min Rain = 0
KBR1 082118Z 12003KT 06/M05 A3021 RMK A01 T00581050  RH  046%=      5-min Rain = 0
KBR1 082119Z 11003KT 06/M05 A302 RMK A01 T00581049  RH  046%=      5-min Rain = 0
KBR1 082120Z 08001KT 06/M05 A302 RMK A01 T00581049  RH  046%=      5-min Rain = 0
KBR1 082121Z 10001KT 06/M05 A3021 RMK A01 T00581049  RH  046%=      5-min Rain = 0
KBR1 082122Z 13002KT 06/M05 A302 RMK A01 T00581049  RH  046%=      5-min Rain = 0
KBR1 082123Z 09003KT 06/M05 A302 RMK A01 T00611047  RH  046%=      5-min Rain = 0
KBR1 082124Z 08003KT 06/M05 A302 RMK A01 T00621047  RH  045%=      5-min Rain = 0
KBR1 082125Z 09003KT 06/M05 A302 RMK A01 T00621047  RH  045%=      5-min Rain = 0
KBR1 082126Z 10004KT 06/M05 A302 RMK A01 T00631047  RH  045%=      5-min Rain = 0
KBR1 082127Z 09003KT 06/M05 A302 RMK A01 T00611049  RH  045%=      5-min Rain = 0
KBR1 082128Z 08003KT 06/M05 A302 RMK A01 T00601048  RH  046%=      5-min Rain = 0
KBR1 082129Z 08002KT 06/M05 A302 RMK A01 T00611048  RH  046%=      5-min Rain = 0
KBR1 082130Z 12001KT 06/M05 A302 RMK A01 T00601049  RH  045%=      5-min Rain = 0
KBR1 082131Z 13000KT 06/M05 A302 RMK A01 T00611048  RH  046%=      5-min Rain = 0
KBR1 082132Z 18000KT 06/M05 A302 RMK A01 T00621048  RH  045%=      5-min Rain = 0
KBR1 082133Z 18001KT 06/M05 A302 RMK A01 T00641048  RH  045%=      5-min Rain = 0
KBR1 082134Z 21002KT 07/M05 A302 RMK A01 T00651047  RH  045%=      5-min Rain = 0
KBR1 082135Z 22001KT 07/M05 A302 RMK A01 T00661048  RH  044%=      5-min Rain = 0
KBR1 082136Z 17003KT 07/M05 A302 RMK A01 T00671046  RH  044%=      5-min Rain = 0
KBR1 082137Z 16004KT 07/M05 A302 RMK A01 T00681047  RH  044%=      5-min Rain = 0
KBR1 082138Z 15006KT 07/M05 A302 RMK A01 T00661049  RH  044%=      5-min Rain = 0
KBR1 082139Z 17004KT 06/M05 A302 RMK A01 T00641049  RH  044%=      5-min Rain = 0
KBR1 082140Z 17006KT 06/M05 A302 RMK A01 T00641048  RH  045%=      5-min Rain = 0
KBR1 082141Z 18005KT 06/M05 A302 RMK A01 T00641048  RH  045%=      5-min Rain = 0
KBR1 082142Z 19005KT 07/M05 A302 RMK A01 T00661045  RH  045%=      5-min Rain = 0
KBR1 082143Z 20005KT 07/M05 A302 RMK A01 T00671046  RH  044%=      5-min Rain = 0
KBR1 082144Z 20004KT 06/M05 A302 RMK A01 T00641049  RH  044%=      5-min Rain = 0
KBR1 082145Z 20002KT 06/M05 A302 RMK A01 T00621049  RH  045%=      5-min Rain = 0
KBR1 082146Z 19003KT 06/M05 A302 RMK A01 T00621048  RH  045%=      5-min Rain = 0
KBR1 082147Z 14003KT 06/M05 A302 RMK A01 T00631047  RH  045%=      5-min Rain = 0
KBR1 082148Z 14002KT 06/M05 A302 RMK A01 T00641047  RH  045%=      5-min Rain = 0
KBR1 082149Z 13002KT 06/M05 A302 RMK A01 T00631048  RH  045%=      5-min Rain = 0
KBR1 082150Z 12001KT 06/M05 A302 RMK A01 T00621049  RH  045%=      5-min Rain = 0
KBR1 082151Z 13001KT 06/M05 A302 RMK A01 T00621048  RH  045%=      5-min Rain = 0
KBR1 082152Z 17001KT 06/M05 A302 RMK A01 T00631048  RH  045%=      5-min Rain = 0
KBR1 082153Z 21002KT 06/M05 A302 RMK A01 T00641047  RH  045%=      5-min Rain = 0
KBR1 082154Z 12003KT 06/M05 A302 RMK A01 T00641048  RH  044%=      5-min Rain = 0
KBR1 082155Z 10005KT 07/M05 A302 RMK A01 T00651047  RH  045%=      5-min Rain = 0
KBR1 082156Z 11004KT 06/M05 A302 RMK A01 T00641048  RH  044%=      5-min Rain = 0
KBR1 082157Z 10003KT 06/M05 A302 RMK A01 T00631049  RH  045%=      5-min Rain = 0
KBR1 082158Z 11003KT 06/M05 A302 RMK A01 T00611048  RH  045%=      5-min Rain = 0
KBR1 082159Z 12004KT 06/M05 A302 RMK A01 T00611048  RH  046%=      5-min Rain = 0
KBR1 082200Z 12002KT 06/M05 A302 RMK A01 T00601048  RH  046%=      5-min Rain = 0
KBR1 082201Z 13001KT 06/M05 A302 RMK A01 T00591050  RH  046%=      5-min Rain = 0
KBR1 082202Z 14001KT 06/M05 A302 RMK A01 T00601047  RH  046%=      5-min Rain = 0
KBR1 082203Z 12001KT 06/M05 A302 RMK A01 T00621047  RH  046%=      5-min Rain = 0
KBR1 082204Z 11004KT 06/M05 A302 RMK A01 T00631047  RH  045%=      5-min Rain = 0
KBR1 082205Z 11003KT 06/M05 A302 RMK A01 T00631048  RH  045%=      5-min Rain = 0
KBR1 082206Z 11004KT 06/M05 A302 RMK A01 T00631047  RH  045%=      5-min Rain = 0
KBR1 082207Z 11004KT 06/M05 A302 RMK A01 T00641047  RH  045%=      5-min Rain = 0
KBR1 082208Z 09004KT 06/M05 A302 RMK A01 T00641047  RH  045%=      5-min Rain = 0
KBR1 082209Z 08004KT 06/M05 A302 RMK A01 T00631047  RH  045%=      5-min Rain = 0
KBR1 082210Z 10005KT 06/M05 A302 RMK A01 T00621048  RH  045%=      5-min Rain = 0
KBR1 082211Z 13007KT 06/M05 A302 RMK A01 T00621047  RH  045%=      5-min Rain = 0
KBR1 082212Z 14005KT 06/M05 A302 RMK A01 T00621047  RH  045%=      5-min Rain = 0
KBR1 082213Z 13004KT 06/M05 A302 RMK A01 T00611048  RH  046%=      5-min Rain = 0
KBR1 082214Z 13006KT 06/M05 A302 RMK A01 T00611048  RH  046%=      5-min Rain = 0
KBR1 082215Z 12005KT 06/M05 A302 RMK A01 T00621047  RH  045%=      5-min Rain = 0
KBR1 082216Z 13003KT 06/M05 A302 RMK A01 T00611049  RH  045%=      5-min Rain = 0
KBR1 082217Z 13005KT 06/M05 A302 RMK A01 T00601048  RH  046%=      5-min Rain = 0
KBR1 082218Z 14003KT 06/M05 A302 RMK A01 T00601048  RH  046%=      5-min Rain = 0
KBR1 082219Z 13004KT 06/M05 A302 RMK A01 T00611047  RH  046%=      5-min Rain = 0
KBR1 082220Z 13002KT 06/M05 A302 RMK A01 T00611048  RH  046%=      5-min Rain = 0
KBR1 082221Z 14004KT 06/M05 A302 RMK A01 T00601048  RH  046%=      5-min Rain = 0
KBR1 082222Z 12005KT 06/M05 A302 RMK A01 T00611047  RH  046%=      5-min Rain = 0
KBR1 082223Z 13005KT 06/M05 A302 RMK A01 T00621047  RH  046%=      5-min Rain = 0
KBR1 082224Z 14005KT 06/M05 A302 RMK A01 T00611048  RH  046%=      5-min Rain = 0
KBR1 082225Z 12005KT 06/M05 A302 RMK A01 T00601048  RH  046%=      5-min Rain = 0
KBR1 082226Z 12004KT 06/M05 A302 RMK A01 T00601048  RH  046%=      5-min Rain = 0
KBR1 082227Z 11004KT 06/M05 A302 RMK A01 T00611047  RH  046%=      5-min Rain = 0
KBR1 082228Z 11006KT 06/M05 A302 RMK A01 T00601048  RH  046%=      5-min Rain = 0
KBR1 082229Z 11006KT 06/M05 A302 RMK A01 T00611047  RH  046%=      5-min Rain = 0
KBR1 082230Z 12005KT 06/M05 A302 RMK A01 T00601048  RH  046%=      5-min Rain = 0
KBR1 082231Z 12006KT 06/M05 A302 RMK A01 T00601048  RH  046%=      5-min Rain = 0
KBR1 082232Z 11004KT 06/M05 A302 RMK A01 T00591048  RH  046%=      5-min Rain = 0
KBR1 082233Z 10004KT 06/M05 A302 RMK A01 T00591047  RH  046%=      5-min Rain = 0
KBR1 082234Z 11005KT 06/M05 A302 RMK A01 T00591048  RH  046%=      5-min Rain = 0
KBR1 082235Z 10003KT 06/M05 A302 RMK A01 T00581048  RH  046%=      5-min Rain = 0
KBR1 082236Z 09003KT 06/M05 A302 RMK A01 T00581048  RH  046%=      5-min Rain = 0
KBR1 082237Z 10002KT 06/M05 A302 RMK A01 T00581048  RH  047%=      5-min Rain = 0
KBR1 082238Z 11002KT 06/M05 A302 RMK A01 T00581048  RH  047%=      5-min Rain = 0
KBR1 082239Z 14004KT 06/M05 A302 RMK A01 T00581048  RH  047%=      5-min Rain = 0
KBR1 082240Z 12004KT 06/M05 A302 RMK A01 T00591048  RH  046%=      5-min Rain = 0
KBR1 082241Z 10003KT 06/M05 A302 RMK A01 T00591047  RH  046%=      5-min Rain = 0
KBR1 082242Z 10004KT 06/M05 A3021 RMK A01 T00591048  RH  046%=      5-min Rain = 0
KBR1 082243Z 10005KT 06/M05 A3021 RMK A01 T00591048  RH  046%=      5-min Rain = 0
KBR1 082244Z 11006KT 06/M05 A3021 RMK A01 T00581049  RH  046%=      5-min Rain = 0
KBR1 082245Z 11004KT 06/M05 A3021 RMK A01 T00571049  RH  046%=      5-min Rain = 0
KBR1 082246Z 10004KT 06/M05 A3021 RMK A01 T00571048  RH  047%=      5-min Rain = 0
KBR1 082247Z 11005KT 06/M05 A3021 RMK A01 T00581048  RH  047%=      5-min Rain = 0
KBR1 082248Z 10004KT 06/M05 A3021 RMK A01 T00571048  RH  047%=      5-min Rain = 0
KBR1 082249Z 11004KT 06/M05 A3021 RMK A01 T00571048  RH  047%=      5-min Rain = 0
KBR1 082250Z 11003KT 06/M05 A3021 RMK A01 T00571048  RH  047%=      5-min Rain = 0
KBR1 082251Z 10004KT 06/M05 A3021 RMK A01 T00571048  RH  047%=      5-min Rain = 0
KBR1 082252Z 09005KT 06/M05 A3021 RMK A01 T00571048  RH  047%=      5-min Rain = 0
KBR1 082253Z 10005KT 06/M05 A302 RMK A01 T00561048  RH  047%=      5-min Rain = 0
KBR1 082254Z 10006KT 06/M05 A3021 RMK A01 T00561048  RH  047%=      5-min Rain = 0
KBR1 082255Z 09006KT 06/M05 A3021 RMK A01 T00551049  RH  047%=      5-min Rain = 0
KBR1 082256Z 09005KT 06/M05 A3021 RMK A01 T00551048  RH  048%=      5-min Rain = 0
KBR1 082257Z 10006KT 05/M05 A3021 RMK A01 T00541048  RH  048%=      5-min Rain = 0
KBR1 082258Z 09005KT 05/M05 A3021 RMK A01 T00541049  RH  048%=      5-min Rain = 0
KBR1 082259Z 09004KT 05/M05 A3021 RMK A01 T00541048  RH  048%=      5-min Rain = 0
KBR1 082300Z 09004KT 05/M05 A3021 RMK A01 T00541048  RH  048%=      5-min Rain = 0
KBR1 082301Z 09004KT 05/M05 A3021 RMK A01 T00531048  RH  048%=      5-min Rain = 0
KBR1 082302Z 09004KT 05/M05 A3021 RMK A01 T00531048  RH  048%=      5-min Rain = 0
KBR1 082303Z 08003KT 05/M05 A3021 RMK A01 T00531048  RH  048%=      5-min Rain = 0
KBR1 082304Z 08004KT 05/M05 A3021 RMK A01 T00521048  RH  048%=      5-min Rain = 0
KBR1 082305Z 08005KT 05/M05 A3021 RMK A01 T00521048  RH  048%=      5-min Rain = 0
KBR1 082306Z 09004KT 05/M05 A3021 RMK A01 T00511048  RH  048%=      5-min Rain = 0
KBR1 082307Z 09005KT 05/M05 A3021 RMK A01 T00511049  RH  049%=      5-min Rain = 0
KBR1 082308Z 09004KT 05/M05 A3021 RMK A01 T00501049  RH  049%=      5-min Rain = 0
KBR1 082309Z 09004KT 05/M05 A3021 RMK A01 T00501049  RH  049%=      5-min Rain = 0
KBR1 082310Z 09004KT 05/M05 A3021 RMK A01 T00491049  RH  049%=      5-min Rain = 0
KBR1 082311Z 09004KT 05/M05 A3021 RMK A01 T00491049  RH  049%=      5-min Rain = 0
KBR1 082312Z 10004KT 05/M05 A3021 RMK A01 T00481049  RH  050%=      5-min Rain = 0
KBR1 082313Z 10004KT 05/M05 A3021 RMK A01 T00471049  RH  050%=      5-min Rain = 0
KBR1 082314Z 11004KT 05/M05 A3021 RMK A01 T00471049  RH  050%=      5-min Rain = 0
KBR1 082315Z 11005KT 05/M05 A3021 RMK A01 T00461049  RH  050%=      5-min Rain = 0
KBR1 082316Z 11005KT 05/M05 A3021 RMK A01 T00461050  RH  050%=      5-min Rain = 0
KBR1 082317Z 11005KT 05/M05 A3021 RMK A01 T00451050  RH  050%=      5-min Rain = 0
KBR1 082318Z 11005KT 04/M05 A3021 RMK A01 T00441050  RH  051%=      5-min Rain = 0
KBR1 082319Z 11006KT 04/M05 A3021 RMK A01 T00421050  RH  051%=      5-min Rain = 0
KBR1 082320Z 11005KT 04/M05 A3021 RMK A01 T00421050  RH  051%=      5-min Rain = 0
KBR1 082321Z 11005KT 04/M05 A3021 RMK A01 T00411051  RH  051%=      5-min Rain = 0
KBR1 082322Z 11005KT 04/M05 A3021 RMK A01 T00401051  RH  051%=      5-min Rain = 0
KBR1 082323Z 10005KT 04/M05 A3021 RMK A01 T00391051  RH  052%=      5-min Rain = 0
KBR1 082324Z 11005KT 04/M05 A3022 RMK A01 T00381051  RH  052%=      5-min Rain = 0
KBR1 082325Z 11005KT 04/M05 A3022 RMK A01 T00381051  RH  052%=      5-min Rain = 0
KBR1 082326Z 11005KT 04/M05 A3021 RMK A01 T00361052  RH  053%=      5-min Rain = 0
KBR1 082327Z 11006KT 04/M05 A3021 RMK A01 T00351052  RH  053%=      5-min Rain = 0
KBR1 082328Z 11006KT 03/M05 A3021 RMK A01 T00341052  RH  053%=      5-min Rain = 0
KBR1 082329Z 11005KT 03/M05 A3021 RMK A01 T00331053  RH  054%=      5-min Rain = 0
KBR1 082330Z 11005KT 03/M05 A3021 RMK A01 T00321053  RH  054%=      5-min Rain = 0
KBR1 082331Z 10006KT 03/M05 A3021 RMK A01 T00301053  RH  054%=      5-min Rain = 0
KBR1 082332Z 10006KT 03/M05 A3021 RMK A01 T00291054  RH  054%=      5-min Rain = 0
KBR1 082333Z 10006KT 03/M05 A3021 RMK A01 T00281054  RH  055%=      5-min Rain = 0
KBR1 082334Z 10006KT 03/M05 A3021 RMK A01 T00271054  RH  055%=      5-min Rain = 0
KBR1 082335Z 10006KT 03/M05 A3021 RMK A01 T00261054  RH  055%=      5-min Rain = 0
KBR1 082336Z 10007KT 03/M06 A3021 RMK A01 T00251055  RH  056%=      5-min Rain = 0
KBR1 082337Z 10007KT 02/M06 A3021 RMK A01 T00241055  RH  056%=      5-min Rain = 0
KBR1 082338Z 11007KT 02/M06 A3021 RMK A01 T00231055  RH  057%=      5-min Rain = 0
KBR1 082339Z 10008KT 02/M05 A3021 RMK A01 T00221054  RH  057%=      5-min Rain = 0
KBR1 082340Z 10008KT 02/M06 A3021 RMK A01 T00211055  RH  057%=      5-min Rain = 0
KBR1 082341Z 10008KT 02/M05 A3021 RMK A01 T00211054  RH  057%=      5-min Rain = 0
KBR1 082342Z 10008KT 02/M05 A3021 RMK A01 T00201054  RH  058%=      5-min Rain = 0
KBR1 082343Z 10008KT 02/M05 A3021 RMK A01 T00201054  RH  058%=      5-min Rain = 0
KBR1 082344Z 10008KT 02/M05 A3021 RMK A01 T00191054  RH  058%=      5-min Rain = 0
KBR1 082345Z 10008KT 02/M05 A3021 RMK A01 T00191054  RH  058%=      5-min Rain = 0
KBR1 082346Z 10008KT 02/M05 A3021 RMK A01 T00191054  RH  059%=      5-min Rain = 0
KBR1 082347Z 10008KT 02/M05 A3021 RMK A01 T00191054  RH  059%=      5-min Rain = 0
KBR1 082348Z 10008KT 02/M05 A3021 RMK A01 T00181054  RH  059%=      5-min Rain = 0
KBR1 082349Z 10009KT 02/M05 A3021 RMK A01 T00181054  RH  059%=      5-min Rain = 0
KBR1 082350Z 10008KT 02/M05 A3021 RMK A01 T00171054  RH  059%=      5-min Rain = 0
KBR1 082351Z 10008KT 02/M06 A3021 RMK A01 T00171055  RH  059%=      5-min Rain = 0
KBR1 082352Z 10008KT 02/M06 A3021 RMK A01 T00161055  RH  059%=      5-min Rain = 0
KBR1 082353Z 10008KT 02/M06 A3021 RMK A01 T00151055  RH  060%=      5-min Rain = 0
KBR1 082354Z 11008KT 01/M06 A3021 RMK A01 T00141056  RH  060%=      5-min Rain = 0
KBR1 082355Z 11008KT 01/M06 A3021 RMK A01 T00131056  RH  060%=      5-min Rain = 0
KBR1 082356Z 11008KT 01/M06 A3021 RMK A01 T00121056  RH  060%=      5-min Rain = 0
KBR1 082357Z 11008KT 01/M06 A3021 RMK A01 T00111057  RH  061%=      5-min Rain = 0
KBR1 082358Z 11008KT 01/M06 A3021 RMK A01 T00101057  RH  061%=      5-min Rain = 0
KBR1 082359Z 10009KT 01/M06 A3021 RMK A01 T00101056  RH  061%=      5-min Rain = 0
KBR1 090000Z 10009KT 01/M06 A3021 RMK A01 T00101056  RH  061%=      5-min Rain = 0
KBR1 090001Z 10009KT 01/M06 A3021 RMK A01 T00091057  RH  062%=      5-min Rain = 0
KBR1 090002Z 10009KT 01/M06 A3022 RMK A01 T00091057  RH  062%=      5-min Rain = 0
KBR1 090003Z 10008KT 01/M06 A3022 RMK A01 T00081057  RH  062%=      5-min Rain = 0
KBR1 090004Z 10008KT 01/M06 A3022 RMK A01 T00081057  RH  062%=      5-min Rain = 0
KBR1 090005Z 10008KT 01/M06 A3022 RMK A01 T00071057  RH  062%=      5-min Rain = 0
KBR1 090006Z 10008KT 01/M06 A3022 RMK A01 T00071057  RH  062%=      5-min Rain = 0
KBR1 090007Z 10008KT 01/M06 A3022 RMK A01 T00061057  RH  063%=      5-min Rain = 0
KBR1 090008Z 10008KT 01/M06 A3022 RMK A01 T00051057  RH  063%=      5-min Rain = 0
KBR1 090009Z 10008KT 01/M06 A3022 RMK A01 T00051057  RH  063%=      5-min Rain = 0
KBR1 090010Z 10009KT 01/M06 A3022 RMK A01 T00051057  RH  063%=      5-min Rain = 0
KBR1 090011Z 09009KT 01/M06 A3022 RMK A01 T00051056  RH  064%=      5-min Rain = 0
KBR1 090012Z 09008KT 00/M06 A3022 RMK A01 T00041057  RH  064%=      5-min Rain = 0
KBR1 090013Z 09008KT 00/M06 A3022 RMK A01 T00031057  RH  064%=      5-min Rain = 0
KBR1 090014Z 09009KT 00/M06 A3022 RMK A01 T00031057  RH  064%=      5-min Rain = 0
KBR1 090015Z 09009KT 00/M06 A3022 RMK A01 T00021057  RH  064%=      5-min Rain = 0
KBR1 090016Z 09009KT 00/M06 A3022 RMK A01 T00021057  RH  064%=      5-min Rain = 0
KBR1 090017Z 09009KT 00/M06 A3022 RMK A01 T00031056  RH  064%=      5-min Rain = 0
KBR1 090018Z 09009KT 00/M06 A3022 RMK A01 T00031056  RH  064%=      5-min Rain = 0
KBR1 090019Z 09008KT 00/M06 A3022 RMK A01 T00031056  RH  064%=      5-min Rain = 0
KBR1 090020Z 09009KT 00/M06 A3022 RMK A01 T00041056  RH  064%=      5-min Rain = 0
KBR1 090021Z 09009KT 00/M06 A3022 RMK A01 T00041056  RH  064%=      5-min Rain = 0
KBR1 090022Z 09009KT 00/M06 A3022 RMK A01 T00041056  RH  064%=      5-min Rain = 0
KBR1 090023Z 09009KT 00/M06 A3022 RMK A01 T00041056  RH  064%=      5-min Rain = 0
KBR1 090024Z 08009KT 00/M06 A3022 RMK A01 T00031057  RH  064%=      5-min Rain = 0
KBR1 090025Z 08009KT 00/M06 A3022 RMK A01 T00011058  RH  064%=      5-min Rain = 0
KBR1 090026Z 08008KT M00/M06 A3022 RMK A01 T10011059  RH  065%=      5-min Rain = 0
KBR1 090027Z 08008KT M00/M06 A3022 RMK A01 T10021059  RH  066%=      5-min Rain = 0
KBR1 090028Z 09008KT M00/M06 A3022 RMK A01 T10041060  RH  066%=      5-min Rain = 0
KBR1 090029Z 09007KT M01/M06 A3023 RMK A01 T10051060  RH  066%=      5-min Rain = 0
KBR1 090030Z 09008KT M01/M06 A3023 RMK A01 T10051059  RH  067%=      5-min Rain = 0
KBR1 090031Z 09008KT M01/M06 A3023 RMK A01 T10051059  RH  067%=      5-min Rain = 0
KBR1 090032Z 09008KT M00/M06 A3023 RMK A01 T10041058  RH  067%=      5-min Rain = 0
KBR1 090033Z 09008KT M00/M06 A3023 RMK A01 T10031057  RH  067%=      5-min Rain = 0
KBR1 090034Z 09008KT M00/M06 A3023 RMK A01 T10021058  RH  066%=      5-min Rain = 0
KBR1 090035Z 09008KT M00/M06 A3023 RMK A01 T10021058  RH  066%=      5-min Rain = 0
KBR1 090036Z 09008KT M00/M06 A3023 RMK A01 T10031059  RH  066%=      5-min Rain = 0
KBR1 090037Z 09008KT M00/M06 A3023 RMK A01 T10041060  RH  066%=      5-min Rain = 0
KBR1 090038Z 09008KT M01/M06 A3023 RMK A01 T10061060  RH  067%=      5-min Rain = 0
KBR1 090039Z 09008KT M01/M06 A3023 RMK A01 T10061060  RH  067%=      5-min Rain = 0
KBR1 090040Z 09009KT M01/M06 A3023 RMK A01 T10071060  RH  067%=      5-min Rain = 0
KBR1 090041Z 08008KT M01/M06 A3023 RMK A01 T10071059  RH  067%=      5-min Rain = 0
KBR1 090042Z 08008KT M01/M06 A3023 RMK A01 T10071060  RH  067%=      5-min Rain = 0
KBR1 090043Z 08008KT M01/M06 A3023 RMK A01 T10081060  RH  068%=      5-min Rain = 0
KBR1 090044Z 09008KT M01/M06 A3023 RMK A01 T10091061  RH  068%=      5-min Rain = 0
KBR1 090045Z 09008KT M01/M06 A3023 RMK A01 T10101060  RH  068%=      5-min Rain = 0
KBR1 090046Z 09009KT M01/M06 A3023 RMK A01 T10101060  RH  069%=      5-min Rain = 0
KBR1 090047Z 09009KT M01/M06 A3023 RMK A01 T10081059  RH  069%=      5-min Rain = 0
KBR1 090048Z 09009KT M01/M06 A3023 RMK A01 T10071058  RH  068%=      5-min Rain = 0
KBR1 090049Z 09009KT M01/M06 A3023 RMK A01 T10061058  RH  068%=      5-min Rain = 0
KBR1 090050Z 08008KT M01/M06 A3023 RMK A01 T10061059  RH  068%=      5-min Rain = 0
KBR1 090051Z 08008KT M01/M06 A3023 RMK A01 T10061059  RH  068%=      5-min Rain = 0
KBR1 090052Z 08008KT M01/M06 A3023 RMK A01 T10071060  RH  068%=      5-min Rain = 0
KBR1 090053Z 08008KT M01/M06 A3023 RMK A01 T10091060  RH  068%=      5-min Rain = 0
KBR1 090054Z 09008KT M01/M06 A3023 RMK A01 T10101060  RH  069%=      5-min Rain = 0
KBR1 090055Z 09008KT M01/M06 A3023 RMK A01 T10101060  RH  069%=      5-min Rain = 0
KBR1 090056Z 09008KT M01/M06 A3023 RMK A01 T10111060  RH  069%=      5-min Rain = 0
KBR1 090057Z 09008KT M01/M06 A3023 RMK A01 T10111060  RH  069%=      5-min Rain = 0
KBR1 090058Z 08009KT M01/M06 A3023 RMK A01 T10101060  RH  069%=      5-min Rain = 0
KBR1 090059Z 08008KT M01/M06 A3023 RMK A01 T10111060  RH  069%=      5-min Rain = 0
KBR1 090100Z 08008KT M01/M06 A3023 RMK A01 T10111060  RH  069%=      5-min Rain = 0
KBR1 090101Z 08008KT M01/M06 A3023 RMK A01 T10111060  RH  069%=      5-min Rain = 0
KBR1 090102Z 08008KT M01/M06 A3023 RMK A01 T10121061  RH  070%=      5-min Rain = 0
KBR1 090103Z 08008KT M01/M06 A3023 RMK A01 T10121060  RH  070%=      5-min Rain = 0
KBR1 090104Z 08008KT M01/M06 A3023 RMK A01 T10121060  RH  070%=      5-min Rain = 0
KBR1 090105Z 08008KT M01/M06 A3023 RMK A01 T10131060  RH  070%=      5-min Rain = 0
KBR1 090106Z 08008KT M01/M06 A3023 RMK A01 T10131060  RH  070%=      5-min Rain = 0
KBR1 090107Z 08008KT M01/M06 A3024 RMK A01 T10131060  RH  070%=      5-min Rain = 0
KBR1 090108Z 08008KT M01/M06 A3024 RMK A01 T10121059  RH  070%=      5-min Rain = 0
KBR1 090109Z 08008KT M01/M06 A3024 RMK A01 T10121059  RH  070%=      5-min Rain = 0
KBR1 090110Z 08008KT M01/M06 A3024 RMK A01 T10121059  RH  070%=      5-min Rain = 0
KBR1 090111Z 08008KT M01/M06 A3024 RMK A01 T10121059  RH  070%=      5-min Rain = 0
KBR1 090112Z 08008KT M01/M06 A3024 RMK A01 T10121059  RH  070%=      5-min Rain = 0
KBR1 090113Z 08009KT M01/M06 A3024 RMK A01 T10121059  RH  070%=      5-min Rain = 0
KBR1 090114Z 08009KT M01/M06 A3024 RMK A01 T10121059  RH  070%=      5-min Rain = 0
KBR1 090115Z 08009KT M01/M06 A3024 RMK A01 T10121059  RH  070%=      5-min Rain = 0
KBR1 090116Z 08009KT M01/M06 A3024 RMK A01 T10111058  RH  070%=      5-min Rain = 0
KBR1 090117Z 08008KT M01/M06 A3024 RMK A01 T10111058  RH  070%=      5-min Rain = 0
KBR1 090118Z 08009KT M01/M06 A3024 RMK A01 T10111058  RH  070%=      5-min Rain = 0
KBR1 090119Z 08008KT M01/M06 A3024 RMK A01 T10111059  RH  070%=      5-min Rain = 0
KBR1 090120Z 07008KT M01/M06 A3024 RMK A01 T10121059  RH  070%=      5-min Rain = 0
KBR1 090121Z 07009KT M01/M06 A3024 RMK A01 T10121059  RH  070%=      5-min Rain = 0
KBR1 090122Z 07009KT M01/M06 A3023 RMK A01 T10121059  RH  070%=      5-min Rain = 0
KBR1 090123Z 07009KT M01/M06 A3023 RMK A01 T10121059  RH  070%=      5-min Rain = 0
KBR1 090124Z 07009KT M01/M06 A3023 RMK A01 T10131059  RH  071%=      5-min Rain = 0
KBR1 090125Z 08009KT M01/M06 A3024 RMK A01 T10131059  RH  071%=      5-min Rain = 0
KBR1 090126Z 08009KT M01/M06 A3024 RMK A01 T10131059  RH  071%=      5-min Rain = 0
KBR1 090127Z 08009KT M01/M06 A3024 RMK A01 T10141059  RH  071%=      5-min Rain = 0
KBR1 090128Z 08008KT M01/M06 A3024 RMK A01 T10141059  RH  071%=      5-min Rain = 0
KBR1 090129Z 08008KT M01/M06 A3024 RMK A01 T10141059  RH  071%=      5-min Rain = 0
KBR1 090130Z 07008KT M01/M06 A3024 RMK A01 T10131059  RH  071%=      5-min Rain = 0
KBR1 090131Z 07008KT M01/M06 A3024 RMK A01 T10131059  RH  071%=      5-min Rain = 0
KBR1 090132Z 07008KT M01/M06 A3024 RMK A01 T10131059  RH  071%=      5-min Rain = 0
KBR1 090133Z 07008KT M01/M06 A3024 RMK A01 T10141060  RH  071%=      5-min Rain = 0
KBR1 090134Z 07008KT M01/M06 A3024 RMK A01 T10141059  RH  071%=      5-min Rain = 0
KBR1 090135Z 07008KT M02/M06 A3024 RMK A01 T10151060  RH  071%=      5-min Rain = 0
KBR1 090136Z 07008KT M02/M06 A3024 RMK A01 T10151060  RH  072%=      5-min Rain = 0
KBR1 090137Z 07008KT M02/M06 A3024 RMK A01 T10151060  RH  072%=      5-min Rain = 0
KBR1 090138Z 07008KT M02/M06 A3024 RMK A01 T10151060  RH  072%=      5-min Rain = 0
KBR1 090139Z 07008KT M02/M06 A3024 RMK A01 T10151060  RH  072%=      5-min Rain = 0
KBR1 090140Z 07008KT M02/M06 A3024 RMK A01 T10161060  RH  072%=      5-min Rain = 0
KBR1 090141Z 07008KT M02/M06 A3024 RMK A01 T10161060  RH  072%=      5-min Rain = 0
KBR1 090142Z 07008KT M02/M06 A3024 RMK A01 T10161059  RH  072%=      5-min Rain = 0
KBR1 090143Z 07008KT M02/M06 A3024 RMK A01 T10161060  RH  072%=      5-min Rain = 0
KBR1 090144Z 07008KT M02/M06 A3024 RMK A01 T10161060  RH  072%=      5-min Rain = 0
KBR1 090145Z 07007KT M02/M06 A3025 RMK A01 T10161060  RH  072%=      5-min Rain = 0
KBR1 090146Z 07008KT M02/M06 A3025 RMK A01 T10161060  RH  072%=      5-min Rain = 0
KBR1 090147Z 07008KT M02/M06 A3025 RMK A01 T10171060  RH  072%=      5-min Rain = 0
KBR1 090148Z 07008KT M02/M06 A3025 RMK A01 T10171060  RH  073%=      5-min Rain = 0
KBR1 090149Z 07008KT M02/M06 A3025 RMK A01 T10171060  RH  073%=      5-min Rain = 0
KBR1 090150Z 07008KT M02/M06 A3025 RMK A01 T10171059  RH  073%=      5-min Rain = 0
KBR1 090151Z 07008KT M02/M06 A3025 RMK A01 T10171060  RH  073%=      5-min Rain = 0
KBR1 090152Z 07008KT M02/M06 A3025 RMK A01 T10171059  RH  073%=      5-min Rain = 0
KBR1 090153Z 07008KT M02/M06 A3025 RMK A01 T10171059  RH  073%=      5-min Rain = 0
KBR1 090154Z 07008KT M02/M06 A3025 RMK A01 T10171059  RH  073%=      5-min Rain = 0
KBR1 090155Z 07007KT M02/M06 A3025 RMK A01 T10171059  RH  073%=      5-min Rain = 0
KBR1 090156Z 07007KT M02/M06 A3025 RMK A01 T10171059  RH  073%=      5-min Rain = 0
KBR1 090157Z 07007KT M02/M06 A3025 RMK A01 T10181059  RH  073%=      5-min Rain = 0
KBR1 090158Z 07007KT M02/M06 A3025 RMK A01 T10171059  RH  073%=      5-min Rain = 0
KBR1 090159Z 07008KT M02/M06 A3025 RMK A01 T10171059  RH  073%=      5-min Rain = 0
KBR1 090200Z 06008KT M02/M06 A3025 RMK A01 T10171059  RH  073%=      5-min Rain = 0
KBR1 090201Z 06008KT M02/M06 A3025 RMK A01 T10171059  RH  073%=      5-min Rain = 0
KBR1 090202Z 06008KT M02/M06 A3025 RMK A01 T10171059  RH  073%=      5-min Rain = 0
KBR1 090203Z 06008KT M02/M06 A3025 RMK A01 T10171059  RH  073%=      5-min Rain = 0
KBR1 090204Z 07008KT M02/M06 A3025 RMK A01 T10181059  RH  073%=      5-min Rain = 0
KBR1 090205Z 07008KT M02/M06 A3025 RMK A01 T10181059  RH  073%=      5-min Rain = 0
KBR1 090206Z 07008KT M02/M06 A3025 RMK A01 T10171059  RH  073%=      5-min Rain = 0
KBR1 090207Z 07008KT M02/M06 A3025 RMK A01 T10171059  RH  073%=      5-min Rain = 0
KBR1 090208Z 07008KT M02/M06 A3025 RMK A01 T10171059  RH  073%=      5-min Rain = 0
KBR1 090209Z 07008KT M02/M06 A3025 RMK A01 T10171059  RH  073%=      5-min Rain = 0
KBR1 090210Z 06008KT M02/M06 A3025 RMK A01 T10171058  RH  073%=      5-min Rain = 0
KBR1 090211Z 06008KT M02/M06 A3025 RMK A01 T10171059  RH  073%=      5-min Rain = 0
KBR1 090212Z 06008KT M02/M06 A3025 RMK A01 T10171059  RH  073%=      5-min Rain = 0
KBR1 090213Z 06008KT M02/M06 A3025 RMK A01 T10171058  RH  073%=      5-min Rain = 0
KBR1 090214Z 06008KT M02/M06 A3025 RMK A01 T10171058  RH  074%=      5-min Rain = 0
KBR1 090215Z 07008KT M02/M06 A3025 RMK A01 T10171058  RH  074%=      5-min Rain = 0
KBR1 090216Z 07008KT M02/M06 A3025 RMK A01 T10161057  RH  073%=      5-min Rain = 0
KBR1 090217Z 07008KT M02/M06 A3025 RMK A01 T10151057  RH  073%=      5-min Rain = 0
KBR1 090218Z 07008KT M01/M06 A3025 RMK A01 T10141057  RH  073%=      5-min Rain = 0
KBR1 090219Z 07008KT M01/M06 A3025 RMK A01 T10141057  RH  072%=      5-min Rain = 0
KBR1 090220Z 07008KT M01/M06 A3025 RMK A01 T10141058  RH  072%=      5-min Rain = 0
KBR1 090221Z 07008KT M01/M06 A3025 RMK A01 T10141057  RH  072%=      5-min Rain = 0
KBR1 090222Z 07008KT M01/M06 A3025 RMK A01 T10141058  RH  072%=      5-min Rain = 0
KBR1 090223Z 07008KT M01/M06 A3025 RMK A01 T10141058  RH  072%=      5-min Rain = 0
KBR1 090224Z 07008KT M01/M06 A3025 RMK A01 T10131057  RH  072%=      5-min Rain = 0
KBR1 090225Z 07008KT M01/M06 A3025 RMK A01 T10141058  RH  072%=      5-min Rain = 0
KBR1 090226Z 07007KT M01/M06 A3025 RMK A01 T10141058  RH  072%=      5-min Rain = 0
KBR1 090227Z 07007KT M02/M06 A3025 RMK A01 T10151059  RH  072%=      5-min Rain = 0
KBR1 090228Z 07007KT M02/M06 A3025 RMK A01 T10161059  RH  072%=      5-min Rain = 0
KBR1 090229Z 07007KT M02/M06 A3025 RMK A01 T10161059  RH  072%=      5-min Rain = 0
KBR1 090230Z 07007KT M02/M06 A3025 RMK A01 T10171060  RH  072%=      5-min Rain = 0
KBR1 090231Z 07007KT M02/M06 A3025 RMK A01 T10171060  RH  073%=      5-min Rain = 0
KBR1 090232Z 07007KT M02/M06 A3025 RMK A01 T10171060  RH  073%=      5-min Rain = 0
KBR1 090233Z 07007KT M02/M06 A3025 RMK A01 T10181060  RH  073%=      5-min Rain = 0
KBR1 090234Z 07007KT M02/M06 A3025 RMK A01 T10181060  RH  073%=      5-min Rain = 0
KBR1 090235Z 07007KT M02/M06 A3025 RMK A01 T10191061  RH  073%=      5-min Rain = 0
KBR1 090236Z 07007KT M02/M06 A3025 RMK A01 T10201061  RH  073%=      5-min Rain = 0
KBR1 090237Z 07007KT M02/M06 A3025 RMK A01 T10211061  RH  074%=      5-min Rain = 0
KBR1 090238Z 07007KT M02/M06 A3025 RMK A01 T10211061  RH  074%=      5-min Rain = 0
KBR1 090239Z 07007KT M02/M06 A3025 RMK A01 T10221062  RH  074%=      5-min Rain = 0
KBR1 090240Z 07007KT M02/M06 A3025 RMK A01 T10221062  RH  074%=      5-min Rain = 0
KBR1 090241Z 06006KT M02/M06 A3025 RMK A01 T10221062  RH  074%=      5-min Rain = 0
KBR1 090242Z 06006KT M02/M06 A3025 RMK A01 T10231062  RH  075%=      5-min Rain = 0
KBR1 090243Z 06006KT M02/M06 A3025 RMK A01 T10241062  RH  075%=      5-min Rain = 0
KBR1 090244Z 06007KT M03/M06 A3025 RMK A01 T10251063  RH  075%=      5-min Rain = 0
KBR1 090245Z 06007KT M03/M06 A3025 RMK A01 T10251063  RH  076%=      5-min Rain = 0
KBR1 090246Z 07007KT M03/M06 A3025 RMK A01 T10251062  RH  076%=      5-min Rain = 0
KBR1 090247Z 07007KT M03/M06 A3025 RMK A01 T10261062  RH  076%=      5-min Rain = 0
KBR1 090248Z 07007KT M03/M06 A3025 RMK A01 T10261062  RH  076%=      5-min Rain = 0
KBR1 090249Z 07007KT M03/M06 A3025 RMK A01 T10251061  RH  076%=      5-min Rain = 0
KBR1 090250Z 07007KT M03/M06 A3025 RMK A01 T10251061  RH  076%=      5-min Rain = 0
KBR1 090251Z 07007KT M02/M06 A3025 RMK A01 T10241060  RH  076%=      5-min Rain = 0
KBR1 090252Z 07007KT M02/M06 A3025 RMK A01 T10231060  RH  076%=      5-min Rain = 0
KBR1 090253Z 06007KT M02/M06 A3025 RMK A01 T10231060  RH  076%=      5-min Rain = 0
KBR1 090254Z 06007KT M02/M06 A3025 RMK A01 T10231060  RH  075%=      5-min Rain = 0
KBR1 090255Z 06007KT M02/M06 A3025 RMK A01 T10231060  RH  075%=      5-min Rain = 0
KBR1 090256Z 06007KT M02/M06 A3025 RMK A01 T10231061  RH  075%=      5-min Rain = 0
KBR1 090257Z 06007KT M02/M06 A3025 RMK A01 T10231060  RH  075%=      5-min Rain = 0
KBR1 090258Z 06007KT M02/M06 A3025 RMK A01 T10221060  RH  076%=      5-min Rain = 0
KBR1 090259Z 06007KT M02/M06 A3025 RMK A01 T10221059  RH  076%=      5-min Rain = 0
KBR1 090300Z 06007KT M02/M06 A3025 RMK A01 T10221059  RH  076%=      5-min Rain = 0
KBR1 090301Z 06007KT M02/M06 A3025 RMK A01 T10221059  RH  076%=      5-min Rain = 0
KBR1 090302Z 06007KT M02/M06 A3025 RMK A01 T10211058  RH  076%=      5-min Rain = 0
KBR1 090303Z 06008KT M02/M06 A3025 RMK A01 T10211058  RH  076%=      5-min Rain = 0
KBR1 090304Z 06008KT M02/M06 A3025 RMK A01 T10201058  RH  076%=      5-min Rain = 0
KBR1 090305Z 06008KT M02/M06 A3025 RMK A01 T10191057  RH  075%=      5-min Rain = 0
KBR1 090306Z 06008KT M02/M06 A3025 RMK A01 T10191057  RH  075%=      5-min Rain = 0
KBR1 090307Z 06008KT M02/M06 A3025 RMK A01 T10181057  RH  075%=      5-min Rain = 0
KBR1 090308Z 06008KT M02/M06 A3025 RMK A01 T10171056  RH  075%=      5-min Rain = 0
KBR1 090309Z 06008KT M02/M06 A3025 RMK A01 T10171056  RH  074%=      5-min Rain = 0
KBR1 090310Z 06008KT M02/M06 A3025 RMK A01 T10161056  RH  074%=      5-min Rain = 0
KBR1 090311Z 06007KT M02/M06 A3025 RMK A01 T10151056  RH  074%=      5-min Rain = 0
KBR1 090312Z 06007KT M02/M06 A3025 RMK A01 T10151056  RH  074%=      5-min Rain = 0
KBR1 090313Z 06007KT M02/M06 A3025 RMK A01 T10151057  RH  073%=      5-min Rain = 0
KBR1 090314Z 06007KT M02/M06 A3025 RMK A01 T10151057  RH  073%=      5-min Rain = 0
KBR1 090315Z 06008KT M02/M06 A3026 RMK A01 T10151057  RH  073%=      5-min Rain = 0
KBR1 090316Z 06008KT M02/M06 A3026 RMK A01 T10161057  RH  073%=      5-min Rain = 0
KBR1 090317Z 06008KT M02/M06 A3026 RMK A01 T10161058  RH  073%=      5-min Rain = 0
KBR1 090318Z 06008KT M02/M06 A3026 RMK A01 T10161058  RH  073%=      5-min Rain = 0
KBR1 090319Z 06009KT M02/M06 A3026 RMK A01 T10161057  RH  074%=      5-min Rain = 0
KBR1 090320Z 06008KT M02/M06 A3026 RMK A01 T10161057  RH  074%=      5-min Rain = 0
KBR1 090321Z 06008KT M02/M06 A3026 RMK A01 T10161057  RH  074%=      5-min Rain = 0
KBR1 090322Z 07008KT M02/M06 A3026 RMK A01 T10161057  RH  074%=      5-min Rain = 0
KBR1 090323Z 07008KT M02/M06 A3026 RMK A01 T10161057  RH  074%=      5-min Rain = 0
KBR1 090324Z 07009KT M01/M06 A3026 RMK A01 T10141055  RH  073%=      5-min Rain = 0
KBR1 090325Z 07008KT M01/M06 A3026 RMK A01 T10121055  RH  073%=      5-min Rain = 0
KBR1 090326Z 07008KT M01/M06 A3026 RMK A01 T10111055  RH  072%=      5-min Rain = 0
KBR1 090327Z 07007KT M01/M06 A3026 RMK A01 T10121056  RH  072%=      5-min Rain = 0
KBR1 090328Z 07007KT M01/M06 A3026 RMK A01 T10121056  RH  072%=      5-min Rain = 0
KBR1 090329Z 07006KT M01/M06 A3026 RMK A01 T10121056  RH  072%=      5-min Rain = 0
KBR1 090330Z 08006KT M01/M06 A3026 RMK A01 T10131057  RH  072%=      5-min Rain = 0
KBR1 090331Z 08006KT M01/M06 A3026 RMK A01 T10141058  RH  072%=      5-min Rain = 0
KBR1 090332Z 08006KT M02/M06 A3026 RMK A01 T10151058  RH  072%=      5-min Rain = 0
KBR1 090333Z 08006KT M02/M06 A3027 RMK A01 T10161059  RH  072%=      5-min Rain = 0
KBR1 090334Z 08006KT M02/M06 A3027 RMK A01 T10161059  RH  073%=      5-min Rain = 0
KBR1 090335Z 08006KT M02/M06 A3027 RMK A01 T10171060  RH  073%=      5-min Rain = 0
KBR1 090336Z 08006KT M02/M06 A3027 RMK A01 T10181060  RH  073%=      5-min Rain = 0
KBR1 090337Z 07006KT M02/M06 A3027 RMK A01 T10191060  RH  074%=      5-min Rain = 0
KBR1 090338Z 07006KT M02/M06 A3027 RMK A01 T10201060  RH  074%=      5-min Rain = 0
KBR1 090339Z 07007KT M02/M06 A3027 RMK A01 T10201061  RH  074%=      5-min Rain = 0
KBR1 090340Z 07007KT M02/M06 A3027 RMK A01 T10211061  RH  074%=      5-min Rain = 0
KBR1 090341Z 07007KT M02/M06 A3027 RMK A01 T10221062  RH  074%=      5-min Rain = 0
KBR1 090342Z 08008KT M02/M06 A3027 RMK A01 T10231062  RH  075%=      5-min Rain = 0
KBR1 090343Z 08008KT M02/M06 A3027 RMK A01 T10241062  RH  075%=      5-min Rain = 0
KBR1 090344Z 08008KT M03/M06 A3027 RMK A01 T10251062  RH  075%=      5-min Rain = 0
KBR1 090345Z 08008KT M03/M06 A3026 RMK A01 T10251062  RH  076%=      5-min Rain = 0
KBR1 090346Z 08008KT M03/M06 A3026 RMK A01 T10251062  RH  076%=      5-min Rain = 0
KBR1 090347Z 08008KT M03/M06 A3026 RMK A01 T10251062  RH  076%=      5-min Rain = 0
KBR1 090348Z 08008KT M02/M06 A3026 RMK A01 T10241061  RH  076%=      5-min Rain = 0
KBR1 090349Z 08008KT M02/M06 A3026 RMK A01 T10241061  RH  076%=      5-min Rain = 0
KBR1 090350Z 08008KT M02/M06 A3026 RMK A01 T10241061  RH  076%=      5-min Rain = 0
KBR1 090351Z 08007KT M02/M06 A3026 RMK A01 T10241061  RH  076%=      5-min Rain = 0
KBR1 090352Z 09007KT M02/M06 A3027 RMK A01 T10241061  RH  076%=      5-min Rain = 0
KBR1 090353Z 09006KT M02/M06 A3027 RMK A01 T10241062  RH  076%=      5-min Rain = 0
KBR1 090354Z 09006KT M03/M06 A3027 RMK A01 T10251062  RH  076%=      5-min Rain = 0
KBR1 090355Z 09006KT M03/M06 A3027 RMK A01 T10251063  RH  075%=      5-min Rain = 0
KBR1 090356Z 09007KT M03/M06 A3027 RMK A01 T10261063  RH  076%=      5-min Rain = 0
KBR1 090357Z 09006KT M03/M06 A3027 RMK A01 T10261063  RH  076%=      5-min Rain = 0
KBR1 090358Z 09006KT M03/M06 A3027 RMK A01 T10261063  RH  076%=      5-min Rain = 0
KBR1 090359Z 09006KT M03/M06 A3027 RMK A01 T10271064  RH  076%=      5-min Rain = 0
KBR1 090400Z 09006KT M03/M07 A3027 RMK A01 T10281065  RH  076%=      5-min Rain = 0
KBR1 090401Z 09005KT M03/M07 A3027 RMK A01 T10281065  RH  076%=      5-min Rain = 0
KBR1 090402Z 09005KT M03/M06 A3027 RMK A01 T10281064  RH  076%=      5-min Rain = 0
KBR1 090403Z 09005KT M03/M06 A3027 RMK A01 T10291064  RH  076%=      5-min Rain = 0
KBR1 090404Z 09005KT M03/M07 A3027 RMK A01 T10291065  RH  076%=      5-min Rain = 0
KBR1 090405Z 09004KT M03/M07 A3027 RMK A01 T10291065  RH  076%=      5-min Rain = 0
KBR1 090406Z 09004KT M03/M07 A3027 RMK A01 T10291065  RH  076%=      5-min Rain = 0
KBR1 090407Z 08004KT M03/M07 A3027 RMK A01 T10301066  RH  076%=      5-min Rain = 0
KBR1 090408Z 08003KT M03/M07 A3027 RMK A01 T10321067  RH  077%=      5-min Rain = 0
KBR1 090409Z 08003KT M03/M07 A3027 RMK A01 T10321066  RH  078%=      5-min Rain = 0
KBR1 090410Z 08003KT M03/M07 A3027 RMK A01 T10331065  RH  078%=      5-min Rain = 0
KBR1 090411Z 07004KT M03/M07 A3027 RMK A01 T10331065  RH  079%=      5-min Rain = 0
KBR1 090412Z 07004KT M03/M07 A3027 RMK A01 T10331065  RH  079%=      5-min Rain = 0
KBR1 090413Z 08004KT M03/M07 A3027 RMK A01 T10341066  RH  079%=      5-min Rain = 0
KBR1 090414Z 08004KT M03/M07 A3027 RMK A01 T10341065  RH  079%=      5-min Rain = 0
KBR1 090415Z 08003KT M03/M07 A3027 RMK A01 T10341065  RH  079%=      5-min Rain = 0
KBR1 090416Z 08003KT M03/M07 A3027 RMK A01 T10341065  RH  079%=      5-min Rain = 0
KBR1 090417Z 08003KT M03/M07 A3027 RMK A01 T10331065  RH  079%=      5-min Rain = 0
KBR1 090418Z 07003KT M03/M07 A3027 RMK A01 T10331065  RH  078%=      5-min Rain = 0
KBR1 090419Z 07003KT M03/M07 A3027 RMK A01 T10331066  RH  078%=      5-min Rain = 0
KBR1 090420Z 07003KT M03/M07 A3028 RMK A01 T10331067  RH  077%=      5-min Rain = 0
KBR1 090421Z 08003KT M04/M07 A3027 RMK A01 T10351068  RH  078%=      5-min Rain = 0
KBR1 090422Z 08003KT M04/M07 A3027 RMK A01 T10361069  RH  078%=      5-min Rain = 0
KBR1 090423Z 08003KT M04/M07 A3027 RMK A01 T10361069  RH  078%=      5-min Rain = 0
KBR1 090424Z 08003KT M04/M07 A3027 RMK A01 T10371069  RH  078%=      5-min Rain = 0
KBR1 090425Z 07003KT M04/M07 A3027 RMK A01 T10381070  RH  079%=      5-min Rain = 0
KBR1 090426Z 07003KT M04/M07 A3027 RMK A01 T10381070  RH  079%=      5-min Rain = 0
KBR1 090427Z 07003KT M04/M07 A3027 RMK A01 T10391070  RH  079%=      5-min Rain = 0
KBR1 090428Z 06003KT M04/M07 A3027 RMK A01 T10401071  RH  079%=      5-min Rain = 0
KBR1 090429Z 06003KT M04/M07 A3028 RMK A01 T10411072  RH  079%=      5-min Rain = 0
KBR1 090430Z 05003KT M04/M07 A3028 RMK A01 T10431073  RH  080%=      5-min Rain = 0
KBR1 090431Z 05003KT M04/M07 A3028 RMK A01 T10441073  RH  080%=      5-min Rain = 0
KBR1 090432Z 05003KT M05/M07 A3028 RMK A01 T10451073  RH  081%=      5-min Rain = 0
KBR1 090433Z 04002KT M05/M07 A3028 RMK A01 T10451073  RH  081%=      5-min Rain = 0
KBR1 090434Z 04002KT M05/M07 A3028 RMK A01 T10461073  RH  082%=      5-min Rain = 0
KBR1 090435Z 04002KT M05/M07 A3028 RMK A01 T10461072  RH  082%=      5-min Rain = 0
KBR1 090436Z 04002KT M05/M07 A3028 RMK A01 T10461071  RH  083%=      5-min Rain = 0
KBR1 090437Z 04002KT M05/M07 A3028 RMK A01 T10451070  RH  083%=      5-min Rain = 0
KBR1 090438Z 04002KT M04/M07 A3028 RMK A01 T10441070  RH  082%=      5-min Rain = 0
KBR1 090439Z 03001KT M04/M07 A3028 RMK A01 T10441072  RH  081%=      5-min Rain = 0
KBR1 090440Z 01001KT M05/M07 A3028 RMK A01 T10461074  RH  081%=      5-min Rain = 0
KBR1 090441Z 01002KT M05/M07 A3028 RMK A01 T10481074  RH  082%=      5-min Rain = 0
KBR1 090442Z 02002KT M05/M07 A3028 RMK A01 T10481072  RH  083%=      5-min Rain = 0
KBR1 090443Z 03002KT M05/M07 A3028 RMK A01 T10481072  RH  083%=      5-min Rain = 0
KBR1 090444Z 03002KT M05/M07 A3028 RMK A01 T10481072  RH  083%=      5-min Rain = 0
KBR1 090445Z 03002KT M05/M07 A3028 RMK A01 T10461070  RH  083%=      5-min Rain = 0
KBR1 090446Z 02002KT M05/M07 A3028 RMK A01 T10461071  RH  083%=      5-min Rain = 0
KBR1 090447Z 01002KT M05/M07 A3028 RMK A01 T10461072  RH  082%=      5-min Rain = 0
KBR1 090448Z 01003KT M05/M07 A3029 RMK A01 T10461073  RH  082%=      5-min Rain = 0
KBR1 090449Z 02003KT M05/M07 A3029 RMK A01 T10481073  RH  082%=      5-min Rain = 0
KBR1 090450Z 02003KT M05/M07 A3029 RMK A01 T10471072  RH  083%=      5-min Rain = 0
KBR1 090451Z 02003KT M05/M07 A3028 RMK A01 T10471071  RH  083%=      5-min Rain = 0
KBR1 090452Z 02003KT M05/M07 A3028 RMK A01 T10471072  RH  083%=      5-min Rain = 0
KBR1 090453Z 02003KT M05/M07 A3028 RMK A01 T10471072  RH  083%=      5-min Rain = 0
KBR1 090454Z 02003KT M05/M07 A3028 RMK A01 T10481073  RH  082%=      5-min Rain = 0
KBR1 090455Z 02004KT M05/M07 A3028 RMK A01 T10491074  RH  083%=      5-min Rain = 0
KBR1 090456Z 02004KT M05/M07 A3028 RMK A01 T10491073  RH  083%=      5-min Rain = 0
KBR1 090457Z 02004KT M05/M07 A3028 RMK A01 T10491073  RH  083%=      5-min Rain = 0
KBR1 090458Z 03003KT M05/M07 A3028 RMK A01 T10491073  RH  083%=      5-min Rain = 0
KBR1 090459Z 03003KT M05/M07 A3028 RMK A01 T10491073  RH  083%=      5-min Rain = 0
KBR1 090500Z 04003KT M05/M07 A3028 RMK A01 T10491074  RH  083%=      5-min Rain = 0
KBR1 090501Z 03003KT M05/M07 A3028 RMK A01 T10491074  RH  083%=      5-min Rain = 0
KBR1 090502Z 03003KT M05/M07 A3028 RMK A01 T10491074  RH  083%=      5-min Rain = 0
KBR1 090503Z 02003KT M05/M07 A3029 RMK A01 T10491074  RH  083%=      5-min Rain = 0
KBR1 090504Z 02003KT M05/M07 A3029 RMK A01 T10491074  RH  083%=      5-min Rain = 0
KBR1 090505Z 01003KT M05/M07 A3029 RMK A01 T10491074  RH  083%=      5-min Rain = 0
KBR1 090506Z 01003KT M05/M07 A3029 RMK A01 T10491074  RH  083%=      5-min Rain = 0
KBR1 090507Z 02003KT M05/M07 A3029 RMK A01 T10491073  RH  083%=      5-min Rain = 0
KBR1 090508Z 02004KT M05/M07 A3029 RMK A01 T10481072  RH  083%=      5-min Rain = 0
KBR1 090509Z 03004KT M05/M07 A3029 RMK A01 T10471071  RH  083%=      5-min Rain = 0
KBR1 090510Z 02004KT M05/M07 A3029 RMK A01 T10451071  RH  082%=      5-min Rain = 0
KBR1 090511Z 02004KT M05/M07 A3029 RMK A01 T10451071  RH  082%=      5-min Rain = 0
KBR1 090512Z 03004KT M05/M07 A3029 RMK A01 T10451072  RH  081%=      5-min Rain = 0
KBR1 090513Z 04004KT M05/M07 A3029 RMK A01 T10461073  RH  081%=      5-min Rain = 0
KBR1 090514Z 04004KT M05/M07 A3029 RMK A01 T10461073  RH  082%=      5-min Rain = 0
KBR1 090515Z 04005KT M05/M07 A3029 RMK A01 T10461072  RH  082%=      5-min Rain = 0
KBR1 090516Z 04004KT M05/M07 A3029 RMK A01 T10451070  RH  082%=      5-min Rain = 0
KBR1 090517Z 04005KT M05/M07 A3029 RMK A01 T10451071  RH  082%=      5-min Rain = 0
KBR1 090518Z 04004KT M05/M07 A3029 RMK A01 T10461073  RH  081%=      5-min Rain = 0
KBR1 090519Z 04004KT M05/M07 A3029 RMK A01 T10471074  RH  081%=      5-min Rain = 0
KBR1 090520Z 04004KT M05/M07 A3029 RMK A01 T10471073  RH  082%=      5-min Rain = 0
KBR1 090521Z 04004KT M05/M07 A3029 RMK A01 T10471073  RH  082%=      5-min Rain = 0
KBR1 090522Z 04004KT M05/M07 A3029 RMK A01 T10461073  RH  082%=      5-min Rain = 0
KBR1 090523Z 04005KT M05/M07 A3029 RMK A01 T10461073  RH  082%=      5-min Rain = 0
KBR1 090524Z 04005KT M05/M07 A3029 RMK A01 T10461073  RH  082%=      5-min Rain = 0
KBR1 090525Z 04005KT M05/M07 A3029 RMK A01 T10461072  RH  082%=      5-min Rain = 0
KBR1 090526Z 04005KT M05/M07 A3029 RMK A01 T10451072  RH  082%=      5-min Rain = 0
KBR1 090527Z 04005KT M05/M07 A3029 RMK A01 T10461072  RH  082%=      5-min Rain = 0
KBR1 090528Z 04004KT M05/M07 A3029 RMK A01 T10461072  RH  082%=      5-min Rain = 0
KBR1 090529Z 04004KT M05/M07 A3029 RMK A01 T10451072  RH  082%=      5-min Rain = 0
KBR1 090530Z 03004KT M04/M07 A3029 RMK A01 T10441071  RH  082%=      5-min Rain = 0
KBR1 090531Z 03003KT M04/M07 A3029 RMK A01 T10441071  RH  081%=      5-min Rain = 0
KBR1 090532Z 03003KT M04/M07 A3029 RMK A01 T10431071  RH  081%=      5-min Rain = 0
KBR1 090533Z 03003KT M04/M07 A3029 RMK A01 T10431071  RH  081%=      5-min Rain = 0
KBR1 090534Z 04004KT M04/M07 A3029 RMK A01 T10431070  RH  081%=      5-min Rain = 0
KBR1 090535Z 04004KT M04/M07 A3029 RMK A01 T10421070  RH  081%=      5-min Rain = 0
KBR1 090536Z 04004KT M04/M07 A3029 RMK A01 T10411069  RH  081%=      5-min Rain = 0
KBR1 090537Z 04004KT M04/M07 A3029 RMK A01 T10401068  RH  081%=      5-min Rain = 0
KBR1 090538Z 05004KT M04/M07 A3029 RMK A01 T10401069  RH  080%=      5-min Rain = 0
KBR1 090539Z 06004KT M04/M07 A3029 RMK A01 T10401070  RH  080%=      5-min Rain = 0
KBR1 090540Z 05004KT M04/M07 A3029 RMK A01 T10411072  RH  079%=      5-min Rain = 0
KBR1 090541Z 06005KT M04/M07 A3029 RMK A01 T10431073  RH  080%=      5-min Rain = 0
KBR1 090542Z 05004KT M04/M07 A3029 RMK A01 T10431072  RH  080%=      5-min Rain = 0
KBR1 090543Z 06004KT M04/M07 A3029 RMK A01 T10431071  RH  081%=      5-min Rain = 0
KBR1 090544Z 06004KT M04/M07 A3029 RMK A01 T10431072  RH  081%=      5-min Rain = 0
KBR1 090545Z 06004KT M04/M07 A3029 RMK A01 T10441072  RH  081%=      5-min Rain = 0
KBR1 090546Z 06004KT M04/M07 A3029 RMK A01 T10441072  RH  081%=      5-min Rain = 0
KBR1 090547Z 06004KT M04/M07 A3029 RMK A01 T10441072  RH  081%=      5-min Rain = 0
KBR1 090548Z 06004KT M04/M07 A3029 RMK A01 T10431072  RH  080%=      5-min Rain = 0
KBR1 090549Z 06004KT M04/M07 A3029 RMK A01 T10441072  RH  081%=      5-min Rain = 0
KBR1 090550Z 06004KT M04/M07 A3029 RMK A01 T10441072  RH  081%=      5-min Rain = 0
KBR1 090551Z 05005KT M04/M07 A3029 RMK A01 T10441072  RH  081%=      5-min Rain = 0
KBR1 090552Z 05005KT M04/M07 A3029 RMK A01 T10441072  RH  081%=      5-min Rain = 0
KBR1 090553Z 05005KT M04/M07 A3029 RMK A01 T10421070  RH  081%=      5-min Rain = 0
KBR1 090554Z 05005KT M04/M07 A3029 RMK A01 T10401069  RH  081%=      5-min Rain = 0
KBR1 090555Z 05005KT M04/M07 A3029 RMK A01 T10381069  RH  080%=      5-min Rain = 0
KBR1 090556Z 05006KT M04/M07 A3029 RMK A01 T10381070  RH  079%=      5-min Rain = 0
KBR1 090557Z 05006KT M04/M07 A3029 RMK A01 T10381070  RH  078%=      5-min Rain = 0
KBR1 090558Z 05005KT M04/M07 A3029 RMK A01 T10391071  RH  078%=      5-min Rain = 0
KBR1 090559Z 05005KT M04/M07 A3029 RMK A01 T10401072  RH  079%=      5-min Rain = 0

Page generated in 0.0714 seconds.